GFSNGP_850_spd_000.txt.gz
Wind_Speed
8 9 9 10 11 11 12 10 8 10 13 9 10 10 19 17 16 14 12 16 18 20 22 21 20 21 23 24 27 28 25 22 27 23 19 13 15 16 19 21 21 21 23 23
3 4 9 12 14 14 15 14 9 12 13 7 18 15 16 14 15 15 16 17 19 21 19 19 22 24 27 29 31 22 21 27 26 25 21 14 14 15 17 21 20 24 23 25
2 9 9 2 4 5 4 6 9 5 8 15 10 12 16 11 11 15 16 19 20 18 19 21 23 26 29 32 33 33 30 27 23 23 20 14 14 15 17 21 24 24 26 24
2 5 3 3 12 12 9 7 7 7 8 8 12 16 17 8 11 15 15 16 17 19 22 21 27 27 30 31 34 36 35 31 25 25 16 12 13 17 17 22 24 27 23 22
1 3 9 11 4 6 5 10 10 7 8 12 17 14 6 12 13 13 15 17 20 22 23 27 26 28 32 34 34 35 37 26 26 16 14 16 11 18 18 25 24 21 23 24
2 2 3 2 7 6 9 8 8 10 11 11 16 6 8 20 19 18 19 20 23 24 26 26 27 31 31 32 33 35 31 33 20 12 15 14 14 15 20 21 21 26 28 30
4 4 6 9 5 4 3 2 5 5 10 10 7 7 14 17 15 18 20 22 26 26 26 24 28 29 29 31 33 27 24 19 16 15 15 14 14 18 20 21 24 23 26 30
3 3 6 2 2 1 5 10 2 3 5 8 11 11 15 14 17 19 22 25 26 28 26 28 29 28 27 28 30 25 27 22 21 18 15 15 16 17 21 22 18 20 27 25
9 5 10 3 7 10 10 7 3 8 7 9 10 13 14 16 18 21 24 26 28 27 29 31 27 26 27 27 26 24 23 23 19 16 15 15 19 22 19 16 19 26 26 28
2 7 12 10 3 6 6 2 5 6 8 10 11 12 15 18 22 24 25 28 26 30 31 27 28 29 26 25 24 23 21 18 18 16 17 19 14 17 17 18 24 25 25 26
9 15 15 3 5 7 1 7 9 7 9 8 11 14 18 22 24 26 27 25 30 29 29 29 31 29 25 27 29 18 16 14 14 15 13 16 15 16 16 19 23 22 23 23
8 8 3 3 4 4 7 6 6 5 6 9 12 17 20 22 25 26 28 30 29 29 31 31 29 28 29 22 19 20 18 15 15 14 13 16 12 15 17 20 20 22 21 23
14 0 3 2 7 6 3 1 1 2 7 11 15 17 21 23 24 27 27 28 29 32 30 29 28 27 24 20 20 18 17 17 14 13 11 12 13 17 20 17 18 20 21 24
1 3 3 6 4 5 3 1 3 5 9 12 16 17 19 21 24 24 27 31 30 30 29 29 26 21 19 16 11 14 18 18 15 11 14 14 15 15 15 16 17 16 20 22
5 2 5 2 6 3 2 2 5 9 12 15 15 17 18 20 24 30 32 31 29 34 36 28 27 25 21 17 18 15 14 20 21 16 11 12 13 14 14 14 15 15 15 15
5 5 6 5 3 1 2 5 8 11 12 14 17 21 17 27 30 32 31 33 34 38 33 27 25 25 16 11 12 12 11 15 18 15 10 11 12 14 14 14 14 14 15 18
9 11 7 6 2 3 5 7 9 11 19 19 22 23 26 29 32 32 34 34 32 32 27 25 24 21 13 13 13 9 13 17 20 14 11 12 14 13 13 14 14 14 14 19
10 9 7 3 2 5 8 10 16 18 19 22 24 25 27 30 32 34 36 34 33 33 27 22 19 16 12 11 13 15 19 18 12 13 13 14 13 15 13 12 14 14 16 16
9 7 3 1 4 10 15 20 20 19 22 25 25 26 29 32 33 34 35 31 29 28 24 20 19 14 12 14 14 14 11 13 13 13 12 14 16 13 13 12 13 16 15 15
6 2 3 8 14 18 21 20 19 21 24 25 25 28 31 33 33 33 30 29 25 22 26 22 20 13 13 14 14 11 10 13 13 13 11 13 15 13 13 14 13 14 15 16
3 7 13 19 23 22 20 19 20 25 26 24 25 28 32 34 31 26 28 29 22 19 21 22 19 14 14 11 15 16 13 12 14 12 11 12 14 16 14 14 13 13 16 16
10 16 22 23 23 23 20 20 23 25 24 23 25 29 31 30 26 26 25 25 25 23 26 25 16 14 15 16 17 18 18 16 14 12 13 13 14 14 16 15 14 14 14 16
18 23 21 21 21 22 24 25 24 20 20 23 25 28 26 25 26 27 33 23 27 24 29 18 15 16 16 16 17 18 18 16 15 14 13 14 15 15 16 16 15 15 15 15
23 22 22 21 22 24 25 21 16 18 21 23 25 27 28 29 29 28 28 29 24 24 23 15 16 18 18 19 19 19 18 16 17 18 17 17 17 18 19 17 16 15 15 15
22 22 22 20 19 22 22 20 19 21 21 24 26 30 25 25 27 29 26 27 25 22 21 18 18 21 22 23 22 21 21 19 19 19 23 23 22 20 20 20 19 17 16 17
19 21 21 21 23 23 23 22 23 24 24 28 31 32 27 24 25 28 28 27 26 22 21 20 21 22 23 25 26 26 25 22 21 22 22 21 21 20 20 19 19 18 18 18
19 18 19 20 21 23 23 24 25 26 28 28 32 31 27 28 25 24 25 26 26 24 22 22 23 25 26 29 31 30 28 26 24 24 23 23 22 21 21 20 20 19 18 18

GFSNGP_850_spd_003.txt.gz
Wind_Speed
4 6 5 4 5 6 4 6 6 9 8 13 6 10 12 13 14 15 13 15 15 18 18 14 15 18 22 26 28 31 33 32 35 34 27 21 26 15 14 20 14 14 18 23
3 7 9 5 8 8 7 7 6 3 7 12 15 17 14 16 16 16 15 17 18 14 15 18 19 23 22 22 28 32 35 36 37 34 30 30 22 18 9 9 13 18 22 22
2 4 5 4 4 3 2 2 2 1 5 13 12 16 16 15 13 12 15 16 14 16 16 16 20 16 20 26 32 34 32 36 28 28 33 29 15 16 15 14 13 20 20 19
2 3 2 5 4 3 6 6 7 13 11 15 15 16 14 10 10 10 13 14 14 13 16 17 17 20 25 31 34 33 34 32 33 31 34 24 10 11 17 15 17 18 18 19
2 1 5 7 2 4 4 4 9 10 11 11 8 5 12 9 12 7 9 12 13 16 18 18 22 26 30 32 30 30 28 33 36 25 21 16 13 17 14 14 17 18 20 23
2 4 6 7 4 9 6 2 8 11 8 6 4 2 4 11 10 7 12 13 15 20 19 22 22 27 29 27 28 28 30 34 33 27 22 23 17 13 11 12 18 18 20 22
4 3 7 8 2 7 5 6 8 5 2 2 1 3 10 11 5 13 14 14 18 18 19 18 24 27 23 25 26 27 31 32 26 21 19 18 17 11 15 19 16 18 22 24
2 2 7 10 3 7 6 7 8 7 3 3 5 8 8 6 13 15 15 17 17 19 18 24 22 19 24 26 25 28 31 29 23 20 15 14 14 17 19 16 17 20 22 26
8 6 10 16 10 11 9 10 12 7 4 3 7 8 5 13 14 13 16 18 15 18 25 21 21 25 27 25 28 32 35 28 20 14 14 16 16 13 15 17 17 21 25 27
4 5 7 15 13 11 8 6 5 4 4 6 7 7 10 8 11 12 14 17 23 23 22 24 28 28 25 28 31 36 27 19 15 14 15 13 16 19 17 15 20 23 24 24
3 4 4 7 10 13 10 5 8 10 6 6 3 5 7 8 13 16 21 26 27 27 30 34 32 30 28 32 32 28 22 20 14 15 14 12 14 13 15 18 21 21 21 19
6 3 5 8 13 9 6 7 7 7 7 1 3 5 9 13 17 24 27 28 29 31 32 30 30 35 38 24 22 23 20 15 15 15 12 11 12 15 17 19 20 16 17 18
6 8 9 11 8 6 7 8 11 7 3 1 4 9 15 22 25 25 24 28 29 31 30 32 34 35 29 20 16 18 16 16 17 16 11 14 17 19 22 15 14 15 16 18
10 11 9 7 3 8 11 7 4 6 1 4 9 16 23 22 23 23 26 28 29 30 33 33 34 26 25 24 24 16 15 15 15 18 17 16 15 14 13 15 15 14 15 17
15 10 7 6 9 13 8 9 5 1 4 10 16 18 19 21 22 25 26 28 30 32 34 33 32 25 22 22 14 11 12 12 17 18 19 13 12 12 14 14 13 13 12 16
12 9 9 15 15 12 8 4 2 5 10 14 19 18 19 21 23 25 27 30 31 35 34 30 26 23 20 18 9 12 11 11 13 15 19 16 12 13 14 13 13 12 12 15
17 17 16 14 12 7 4 3 6 11 15 19 18 19 21 22 24 27 30 32 34 33 27 21 22 20 19 17 11 10 12 16 19 19 20 12 13 14 13 14 12 11 13 14
12 16 15 13 9 5 5 8 11 17 19 18 18 21 23 23 26 30 33 34 34 30 23 16 20 21 20 16 12 13 16 18 20 18 11 11 11 12 15 11 11 13 13 16
16 16 11 7 4 4 9 14 17 18 17 17 21 24 24 24 28 32 31 29 27 28 23 20 21 20 19 13 12 14 16 14 12 14 13 11 11 12 13 11 11 12 13 14
11 8 4 1 6 12 16 17 18 18 17 19 22 23 24 25 29 31 26 25 24 22 23 22 21 23 21 16 15 14 11 11 12 13 11 11 12 12 12 13 13 12 12 13
4 1 4 11 16 17 17 17 18 18 20 21 20 19 23 24 26 24 23 29 30 25 21 27 25 30 20 16 16 16 15 15 14 14 14 12 13 13 13 13 13 13 13 14
5 7 13 17 18 19 17 18 19 21 21 19 15 19 23 25 28 29 26 27 30 27 29 26 27 28 15 15 17 18 19 18 19 19 18 16 16 16 14 14 17 14 14 15
11 15 18 17 19 20 20 19 18 16 15 15 17 19 23 25 28 29 33 27 29 28 28 26 25 20 15 17 18 20 20 20 21 21 22 17 17 17 17 17 17 17 16 15
15 17 19 19 19 19 19 19 18 16 18 17 18 19 22 27 33 28 27 29 29 29 27 25 22 19 17 20 22 24 22 21 21 21 20 20 20 20 20 20 19 19 18 17
17 17 17 18 19 20 21 21 22 22 21 21 22 20 22 25 25 26 25 27 26 25 26 25 21 20 19 20 25 27 28 28 27 25 24 22 22 24 25 24 23 21 20 20
16 17 18 18 19 20 22 23 24 25 26 28 26 24 26 28 26 22 21 23 23 22 22 23 21 20 21 23 25 26 27 29 30 30 29 26 24 25 25 26 25 24 23 21
17 18 20 21 21 22 22 22 22 24 24 23 27 28 26 24 23 20 21 23 23 22 22 23 23 22 22 24 25 26 28 29 30 31 31 29 26 25 24 25 24 23 23 23

GFSNGP_850_spd_006.txt.gz
Wind_Speed
2 3 1 1 2 1 4 4 5 7 7 6 6 8 16 18 13 6 5 7 9 5 2 6 9 13 17 20 22 26 30 34 32 35 31 29 27 29 25 16 10 8 13 18
0 5 6 3 5 5 4 4 4 9 5 6 12 19 16 12 9 6 5 5 3 5 1 5 11 14 16 21 25 29 32 32 31 32 33 31 31 27 16 12 8 10 17 19
3 5 6 5 4 3 1 4 3 6 6 9 6 13 13 10 6 2 2 2 4 3 4 11 14 17 21 25 27 30 29 31 34 35 36 31 25 16 18 12 18 12 17 19
2 4 1 5 5 4 9 3 10 11 7 9 13 12 10 5 0 2 0 3 6 5 11 15 16 19 21 25 27 30 31 33 32 33 33 26 20 23 19 13 12 14 16 17
3 3 5 6 4 6 5 3 4 9 10 9 16 13 8 2 1 1 3 8 10 11 14 14 16 18 24 28 28 29 31 32 30 30 29 21 17 17 13 17 10 14 15 15
3 4 6 6 2 9 8 4 16 14 14 11 13 3 5 5 3 4 6 8 9 13 12 15 18 22 24 19 23 29 31 29 30 31 23 20 16 17 13 8 15 13 13 15
3 2 8 7 11 4 5 7 23 19 15 14 6 8 3 4 2 4 8 7 8 10 10 15 21 18 17 23 28 28 25 28 32 27 19 14 11 8 11 16 14 11 12 18
3 2 7 13 6 7 6 11 21 16 13 12 7 6 5 4 2 3 2 6 9 10 16 19 16 20 26 28 25 25 28 32 26 18 14 12 15 17 14 9 8 11 15 20
9 7 6 18 11 15 12 14 17 15 10 9 8 6 6 3 3 4 6 9 14 19 22 21 22 27 24 26 26 28 32 25 21 17 14 13 11 12 11 9 11 16 19 20
3 6 13 13 14 13 15 12 13 13 10 9 7 6 6 5 3 5 11 16 21 24 26 27 27 24 23 27 31 33 25 22 20 14 15 14 11 12 10 11 15 17 18 16
4 4 1 7 16 16 13 11 12 7 9 9 9 8 6 3 5 10 16 21 23 24 26 26 26 28 30 32 32 25 18 19 16 13 13 13 10 10 13 15 17 16 13 14
7 9 11 11 16 18 16 14 12 14 12 12 12 9 2 5 12 18 21 23 24 25 26 27 29 31 32 26 24 20 18 16 13 13 12 10 12 14 16 17 13 11 13 14
15 18 18 15 15 17 13 13 15 18 17 13 8 1 5 15 19 21 21 22 23 25 27 28 30 31 29 21 26 22 23 16 11 11 12 11 14 17 19 9 8 10 13 14
20 15 9 18 13 13 15 18 19 17 12 7 2 6 14 20 21 20 21 22 24 26 28 30 31 28 23 20 22 22 14 11 8 13 15 15 14 14 12 13 13 12 12 13
20 20 14 15 13 19 22 18 16 12 7 1 6 14 21 20 19 20 21 22 26 28 30 31 27 21 19 19 20 13 11 11 12 14 14 16 17 14 11 13 11 12 13 12
19 14 17 20 21 21 17 12 12 6 1 7 15 19 18 18 20 21 20 24 29 32 31 28 24 18 19 20 20 13 11 14 14 12 15 17 16 13 12 13 12 13 11 11
21 19 21 19 18 17 14 9 2 3 9 14 17 16 16 19 21 20 22 27 31 29 26 22 18 19 20 20 20 16 12 13 14 16 19 20 15 14 13 12 11 8 11 11
15 20 20 20 18 14 4 3 4 10 15 17 16 15 17 20 20 22 25 29 30 27 22 17 20 19 21 19 19 16 12 15 17 21 16 15 12 13 13 12 11 10 11 11
17 19 18 14 6 5 1 7 12 14 14 13 14 16 18 18 19 22 24 27 27 26 25 23 20 20 21 20 20 18 15 15 15 15 14 18 14 12 12 12 12 11 11 11
18 9 8 6 1 5 9 11 13 14 12 13 16 18 17 14 17 20 24 27 25 25 26 25 22 28 23 23 26 19 18 15 14 13 13 14 12 12 13 14 14 15 12 13
10 6 1 5 11 12 12 14 14 14 14 16 19 17 14 15 17 19 24 30 28 22 25 24 26 26 22 25 19 16 19 18 17 17 16 18 18 17 15 16 16 17 16 16
3 6 9 14 14 14 14 14 15 15 15 14 13 13 17 19 21 23 25 29 28 24 26 27 27 26 23 22 18 16 18 20 21 21 20 21 24 21 19 18 19 17 19 17
8 11 13 15 16 15 15 12 12 13 15 15 17 17 20 22 23 25 32 31 26 26 28 29 27 26 23 20 18 19 21 22 24 23 22 22 23 24 21 21 21 21 20 18
10 13 15 13 14 15 15 13 13 14 16 17 17 18 21 23 25 25 26 31 26 23 23 24 24 22 22 20 19 20 24 27 28 30 28 27 26 24 23 23 23 23 22 22
11 12 13 13 13 15 17 18 19 20 20 21 22 21 20 21 25 27 29 23 22 22 23 21 20 19 20 19 20 22 23 25 28 31 32 32 34 31 27 23 23 26 26 24
13 13 15 16 18 19 20 22 23 22 23 25 26 23 22 23 23 24 24 22 22 22 22 21 20 19 21 22 23 22 23 26 26 26 27 28 30 30 31 29 25 24 26 28
14 17 19 22 20 23 24 23 22 23 24 28 29 27 26 25 26 24 23 19 22 20 19 20 19 18 18 19 22 24 26 27 28 29 29 29 29 29 28 28 25 22 22 23

GFSNGP_850_spd_009.txt.gz
Wind_Speed
3 4 2 1 3 5 6 4 5 6 7 7 9 10 20 20 15 11 8 5 4 4 7 6 7 9 13 16 20 25 28 30 28 30 31 29 28 24 20 18 18 17 13 9
1 6 6 3 5 6 5 4 6 3 4 4 14 16 19 18 15 11 7 5 4 6 8 11 11 13 13 17 22 27 28 27 27 29 30 28 26 21 17 17 20 14 15 17
3 4 5 6 7 6 4 3 6 6 7 12 6 16 21 17 13 10 7 6 7 9 11 12 13 13 16 20 22 25 24 25 29 28 27 29 26 20 18 21 18 11 15 15
2 3 2 6 4 6 4 1 3 3 9 15 18 19 16 14 12 10 9 8 9 11 11 12 13 14 15 21 23 21 21 27 27 28 29 29 23 17 13 14 13 15 11 13
4 3 5 6 5 6 6 7 5 8 8 13 12 10 13 16 13 9 10 9 10 9 12 10 11 13 20 21 17 19 26 28 25 27 32 25 22 19 17 16 13 10 12 13
2 4 6 6 3 6 5 5 18 17 17 16 17 3 6 20 14 10 10 8 9 10 8 9 12 17 17 15 21 28 26 24 25 32 26 21 17 14 9 8 11 10 15 15
3 3 8 7 5 4 5 7 23 27 27 24 10 12 4 14 13 10 10 9 8 7 7 12 17 18 19 24 26 23 23 23 26 27 21 17 13 16 18 18 17 11 10 14
3 1 8 11 5 7 6 7 20 28 28 31 25 11 11 11 13 10 10 8 6 8 14 19 20 21 25 23 21 23 23 27 25 23 20 16 15 13 11 10 9 9 12 16
9 6 4 18 8 21 9 9 18 24 25 21 17 13 12 14 13 12 8 6 9 15 19 19 21 22 23 23 25 28 29 28 21 19 18 14 15 13 10 7 8 11 14 15
2 5 15 17 22 21 15 16 14 19 20 19 17 16 17 16 13 8 5 9 15 18 20 22 22 22 23 26 27 26 26 19 17 17 14 14 14 12 8 9 12 14 14 12
5 10 12 15 19 22 23 19 15 17 17 18 17 17 18 15 8 5 9 13 16 19 21 22 22 24 26 27 27 24 22 17 17 19 10 13 11 8 12 14 16 13 10 10
7 17 12 14 14 17 22 24 19 20 18 17 17 19 14 8 3 8 12 14 17 19 22 22 24 27 28 25 23 21 22 19 18 18 8 9 10 12 15 18 12 10 10 10
21 27 20 21 18 17 24 20 19 17 18 21 18 14 7 3 7 10 12 15 19 22 23 25 27 29 25 21 21 17 21 20 13 11 8 10 12 13 16 18 9 11 11 10
23 21 19 22 14 17 20 18 18 19 19 14 14 4 5 6 9 11 14 19 21 23 25 28 29 28 19 19 17 17 19 12 10 9 12 15 14 13 15 15 12 12 10 10
28 26 23 17 13 20 19 19 23 23 17 13 5 7 6 10 12 14 17 20 21 24 27 29 28 22 15 18 19 19 18 14 13 14 15 13 14 16 15 14 14 13 12 11
17 16 15 13 16 19 24 20 15 14 5 4 7 7 11 14 14 16 18 19 22 26 28 28 24 16 15 19 20 20 19 15 15 12 11 15 18 19 15 14 15 14 12 9
10 11 16 20 24 25 17 11 9 6 7 8 10 12 14 14 15 16 15 18 22 24 25 22 22 20 20 19 21 21 19 16 15 14 16 17 18 17 13 14 14 10 12 11
9 11 17 20 17 15 13 3 6 7 8 10 13 13 13 14 16 15 15 18 20 22 22 21 22 24 20 20 22 23 20 21 17 18 18 19 19 16 17 15 15 13 12 12
17 22 21 21 15 7 4 5 7 8 10 12 12 12 13 15 15 13 15 18 21 25 25 22 23 25 21 23 18 21 26 23 21 17 17 17 18 19 16 15 16 15 14 15
21 20 14 10 5 0 3 6 8 9 10 10 12 14 16 14 12 13 16 20 21 25 25 24 21 23 24 24 21 22 23 18 19 19 17 17 17 14 15 16 17 18 17 16
15 10 6 5 5 6 8 8 9 9 11 13 15 14 14 11 14 17 20 24 24 25 25 22 25 27 26 25 24 22 22 19 18 21 21 20 20 21 21 18 20 20 21 20
5 4 6 7 8 8 10 11 12 12 12 13 14 15 17 18 20 23 23 25 28 28 28 25 26 23 24 24 25 23 21 20 20 21 23 24 25 25 24 24 23 23 24 23
6 9 11 12 13 12 12 11 10 12 13 14 15 16 18 20 22 24 27 25 26 28 25 24 23 22 23 22 23 22 21 21 22 24 26 27 29 28 28 28 27 24 24 26
8 9 10 11 11 12 13 14 14 16 19 20 21 21 23 25 26 24 24 26 29 25 25 23 24 22 21 21 22 22 21 21 22 22 24 26 28 31 33 33 34 30 27 26
7 7 9 11 13 16 17 19 21 23 24 23 22 20 23 24 24 25 25 26 26 26 25 25 25 22 21 19 20 21 24 25 25 27 27 28 29 29 29 29 28 29 31 27
7 9 11 13 16 19 21 24 27 27 25 24 23 25 25 24 24 26 26 27 25 25 21 26 24 25 24 23 22 22 25 26 25 26 29 31 31 31 31 30 30 28 27 30
11 15 19 21 23 25 26 27 28 30 27 26 30 30 27 26 23 21 23 22 23 20 23 23 26 27 24 23 22 21 22 23 24 26 28 30 31 32 32 31 30 29 26 26

GFSNGP_850_spd_012.txt.gz
Wind_Speed
2 3 2 2 4 6 6 5 5 5 7 6 11 11 21 25 23 20 17 13 10 8 8 8 17 12 10 14 14 16 18 21 22 26 29 29 28 28 24 18 16 19 20 14
1 4 5 3 6 6 4 4 7 4 8 6 6 17 20 27 24 20 16 11 10 9 7 15 13 12 14 14 15 18 22 22 23 28 27 27 29 27 22 16 18 19 14 13
4 3 5 6 9 9 5 5 6 6 8 7 5 16 26 27 23 20 15 11 11 11 10 11 14 14 14 15 18 22 24 21 25 27 26 29 29 24 21 18 15 14 12 16
2 3 2 6 2 3 5 4 7 3 5 11 10 14 22 24 23 19 14 11 11 9 10 12 13 14 15 17 21 23 21 23 27 24 26 32 28 23 21 20 18 18 18 12
4 3 6 6 5 7 8 8 9 7 4 8 8 12 16 22 20 16 12 10 9 9 12 13 13 13 16 20 22 20 23 26 24 22 27 30 25 20 17 15 13 11 12 9
3 3 6 7 3 4 4 5 12 16 13 15 14 3 8 21 23 18 13 12 11 11 12 11 11 14 19 22 22 24 22 23 23 24 28 27 22 16 16 19 18 17 13 13
3 3 8 8 3 5 5 7 11 21 24 24 8 16 7 6 15 17 13 13 11 12 10 9 13 18 20 22 22 22 22 25 26 27 26 23 21 17 17 16 14 13 13 11
3 2 7 8 4 7 6 6 14 23 24 30 28 19 9 7 16 16 14 12 11 8 8 12 16 19 21 21 23 25 26 27 28 26 20 20 18 16 15 14 12 10 11 15
9 6 5 14 8 14 5 7 13 21 21 26 28 22 14 15 17 17 13 11 6 8 12 15 18 20 22 22 25 26 26 25 25 20 17 16 14 15 14 12 10 12 16 16
2 4 13 18 20 28 21 20 22 18 21 23 26 22 16 16 17 15 11 4 10 12 15 17 18 19 21 24 26 27 24 23 20 17 16 17 13 13 10 10 13 16 17 14
5 12 18 22 22 22 25 26 24 21 19 21 21 18 18 19 17 12 4 10 10 13 16 18 20 21 23 25 27 24 23 21 17 17 17 18 11 9 10 13 15 17 12 11
6 21 13 18 21 18 16 18 21 21 18 19 18 17 17 13 10 3 9 8 12 14 17 19 21 23 25 25 22 22 22 19 23 17 13 14 10 9 12 14 15 13 12 12
21 27 23 24 22 19 21 24 22 17 18 19 17 20 16 15 5 7 8 11 13 16 18 20 23 25 24 19 17 18 19 19 18 13 9 11 10 13 14 13 14 14 14 12
25 23 20 24 21 17 16 14 12 16 16 16 23 18 8 2 6 7 10 11 14 16 18 21 24 26 20 16 18 18 19 18 18 15 13 14 17 16 15 16 16 15 13 11
16 15 18 18 16 10 8 12 15 19 24 15 11 5 2 6 7 8 8 13 14 15 18 21 23 21 18 17 17 19 20 20 19 18 17 17 17 15 17 18 17 15 14 13
17 14 9 6 5 8 11 15 24 21 14 7 2 3 5 8 7 8 12 13 13 14 17 19 20 21 20 22 20 20 20 22 21 19 18 15 15 17 19 19 17 15 15 14
8 4 10 15 16 20 18 19 16 13 6 3 4 8 9 8 9 11 13 13 14 13 16 20 22 21 21 20 19 23 25 24 22 21 21 19 18 19 19 18 16 16 16 13
4 10 14 19 24 21 18 15 9 4 3 7 9 10 10 11 12 14 13 13 13 13 16 20 22 22 24 20 19 22 21 21 25 26 24 23 21 20 21 19 19 19 18 15
26 28 26 24 20 17 10 3 4 7 9 10 11 11 12 13 16 17 14 14 15 18 20 22 21 23 23 24 24 25 24 23 24 24 21 22 22 21 19 19 20 20 19 19
23 21 18 15 10 4 3 5 6 8 10 10 11 13 14 13 15 14 15 18 18 20 22 23 24 25 23 25 25 25 24 23 22 22 20 19 22 20 20 19 18 19 21 22
13 9 6 4 4 5 6 7 7 7 9 10 12 13 14 13 14 17 20 24 23 22 24 25 26 25 23 21 21 23 23 23 21 20 19 19 21 24 24 25 25 26 25 24
3 4 5 6 6 6 7 8 9 10 11 12 14 16 20 22 21 23 25 26 27 24 24 26 27 25 24 22 22 22 22 21 20 20 19 20 23 25 27 27 27 28 29 29
3 4 6 6 7 8 8 10 11 14 16 18 21 22 24 25 25 24 27 26 23 22 25 26 25 25 26 28 23 21 22 21 20 20 20 21 21 22 24 25 26 27 30 31
4 4 5 7 9 11 15 16 17 18 21 23 24 23 24 24 26 25 24 24 22 24 27 29 26 24 27 26 22 17 19 18 20 22 22 22 22 24 27 29 30 29 28 27
5 6 8 11 13 16 19 22 25 25 26 27 26 24 22 23 27 30 29 27 25 25 26 24 24 23 25 24 27 25 23 23 24 24 24 25 26 27 31 32 32 31 30 28
6 7 9 13 16 21 25 27 29 29 28 29 29 28 27 27 26 26 26 25 22 23 24 24 22 23 25 26 23 22 21 20 21 22 23 24 25 27 29 29 32 33 34 29
9 13 17 21 24 26 26 27 28 29 28 26 28 28 29 30 27 25 24 23 24 24 24 21 22 22 25 23 21 20 20 20 21 22 23 25 26 28 30 32 32 31 30 30

GFSNGP_850_spd_015.txt.gz
Wind_Speed
1 1 2 2 4 8 7 4 6 3 8 6 9 13 16 15 19 24 27 25 21 17 14 11 8 15 7 8 12 12 16 19 20 20 23 27 26 28 27 23 20 18 19 20
4 1 3 3 5 7 8 4 10 6 14 10 4 8 15 20 25 26 27 24 20 16 13 13 9 9 10 11 12 16 19 22 21 21 26 27 26 29 27 23 20 17 17 14
3 2 2 5 9 11 6 6 7 9 8 6 6 12 20 23 27 28 27 24 20 17 15 9 7 9 11 13 15 18 22 23 22 24 28 25 27 29 26 22 20 17 17 18
2 1 2 4 2 2 10 6 13 4 4 6 4 9 14 23 29 30 27 22 18 15 12 10 10 11 13 15 16 21 23 21 23 27 25 25 27 27 23 17 16 15 14 14
2 3 5 5 3 5 6 6 12 13 6 4 5 3 8 18 26 26 24 19 14 13 12 11 11 13 13 14 18 21 23 25 24 24 24 25 28 24 20 15 17 17 16 14
3 2 5 5 2 4 3 4 3 12 8 10 11 3 5 15 24 24 20 17 15 13 12 11 11 10 11 16 19 22 22 22 22 23 25 28 27 21 18 16 16 16 13 12
2 4 7 6 1 4 3 4 3 13 15 18 7 11 6 8 20 24 21 18 16 12 12 8 7 10 14 17 19 19 20 22 23 24 26 25 20 17 16 15 15 14 13 13
3 1 6 6 4 5 4 4 6 14 16 24 19 15 12 10 15 23 21 17 15 15 9 7 10 13 15 16 17 19 21 23 24 24 23 17 15 15 14 14 13 13 11 13
8 5 4 12 9 11 9 8 8 13 15 21 21 21 17 14 17 20 20 17 13 8 6 10 11 13 15 16 18 20 23 24 23 23 19 15 14 14 14 13 11 11 13 17
1 3 10 16 18 23 26 25 26 23 20 19 25 23 19 17 19 19 17 13 7 9 8 8 10 13 16 17 20 23 24 23 23 20 18 16 15 15 13 10 9 13 16 18
4 12 15 13 16 13 13 17 21 21 19 20 19 23 23 22 23 23 19 14 10 8 8 9 11 14 15 19 21 22 21 21 19 19 20 17 14 12 11 10 12 14 15 13
5 18 9 17 18 17 18 17 15 16 18 17 15 17 22 22 25 20 13 8 8 8 8 10 11 13 17 20 21 18 18 19 17 19 18 15 13 12 13 13 13 15 15 13
13 13 19 24 25 21 17 16 16 13 10 10 11 17 21 22 12 5 9 7 9 8 9 10 11 15 18 19 16 15 17 16 17 16 18 16 14 13 14 16 16 16 16 14
15 15 15 10 8 14 14 11 8 3 7 11 18 20 16 12 7 3 8 9 9 10 9 10 13 15 16 15 16 15 15 15 16 18 18 18 18 18 19 21 17 19 16 15
15 12 9 9 7 3 1 5 11 20 24 23 16 15 12 5 2 8 9 9 10 9 9 11 12 14 15 15 16 16 15 17 17 18 19 18 19 20 19 18 20 21 19 16
12 6 3 7 11 11 11 20 25 22 19 16 15 9 3 4 7 9 9 11 12 9 10 12 13 15 16 17 20 20 19 20 20 21 20 20 20 20 19 21 20 19 18 17
5 11 13 19 22 24 23 22 21 18 15 8 4 4 7 10 10 10 11 13 13 12 12 14 15 16 16 19 22 19 20 22 20 17 20 24 25 24 23 21 22 21 19 18
14 17 23 25 23 22 19 16 11 8 7 7 8 9 10 11 12 12 14 16 17 16 15 17 18 19 18 19 19 22 25 25 24 22 21 22 23 22 24 25 23 22 21 19
25 25 23 21 18 14 10 7 5 5 8 9 9 9 10 12 14 16 18 19 18 19 17 20 21 21 21 22 22 24 25 24 25 23 21 20 22 21 21 24 24 22 21 20
18 16 13 10 6 2 4 6 7 8 9 9 11 12 13 13 15 16 17 18 18 20 22 21 22 22 23 23 22 23 21 22 23 22 20 20 21 21 20 23 24 23 23 24
8 7 7 8 7 7 7 7 8 9 10 11 13 14 16 17 18 20 21 24 22 22 22 21 20 22 25 25 23 23 22 21 21 21 20 19 19 18 20 22 24 26 27 28
4 4 5 6 6 6 7 8 9 10 11 13 14 17 20 23 24 25 23 23 23 21 21 20 21 24 24 24 24 26 20 18 20 19 20 20 20 20 19 19 20 21 22 24
1 2 3 3 4 6 8 9 11 14 17 20 22 23 24 25 25 25 28 25 24 24 22 23 26 24 23 24 23 23 19 18 19 19 17 19 19 20 21 20 21 22 23 25
1 2 3 4 6 9 13 17 20 22 23 23 23 23 24 27 28 25 26 28 27 27 26 24 24 22 23 23 22 23 24 24 21 21 23 24 22 21 23 23 24 24 25 27
1 2 4 8 13 16 20 24 27 27 27 27 27 26 24 24 26 29 29 29 27 26 26 23 24 27 23 20 21 24 22 19 18 18 19 20 20 20 21 22 24 25 27 28
3 6 9 12 15 19 23 24 25 26 27 30 30 30 29 27 27 29 30 29 28 27 27 26 24 22 19 18 20 21 19 18 17 18 19 20 21 22 23 24 25 26 28 28
6 9 12 16 19 20 22 24 26 28 29 30 34 33 33 31 31 31 30 27 29 29 28 25 20 19 17 16 16 17 18 18 19 19 21 22 22 22 23 24 25 27 28 27

GFSNGP_850_spd_021.txt.gz
Wind_Speed
14 6 6 9 9 12 16 16 14 12 14 8 8 6 9 9 12 17 20 23 26 26 26 26 26 25 24 19 10 11 14 14 14 14 14 14 15 16 16 17 16 17 17 18
5 8 8 11 12 14 14 16 17 18 17 15 12 10 8 11 11 14 18 21 24 26 26 27 27 26 24 16 14 15 15 14 14 14 14 15 16 17 17 16 17 17 17 16
3 4 5 6 15 16 17 16 13 15 16 13 7 6 10 10 10 14 16 19 23 26 26 26 25 24 24 15 14 15 13 13 14 14 15 15 16 17 17 17 17 17 15 13
1 1 1 2 1 4 7 13 15 13 14 14 7 9 8 9 11 12 14 17 20 22 23 23 23 23 18 15 14 13 11 12 13 13 16 15 15 16 17 17 17 15 14 13
2 6 8 11 6 1 3 6 9 7 10 10 5 7 16 13 8 9 12 15 17 18 20 20 21 20 18 16 14 11 10 11 12 13 14 16 16 16 17 17 16 15 14 12
3 3 4 4 4 1 1 5 8 8 9 8 3 5 6 1 4 7 10 13 15 16 17 18 18 17 15 12 7 8 9 9 14 13 13 16 16 16 16 15 13 15 13 12
6 3 5 2 2 2 5 3 8 10 11 8 6 6 7 9 10 11 11 12 13 14 15 14 15 14 9 7 4 8 12 14 13 13 14 15 15 15 14 13 13 13 14 12
3 3 5 6 6 1 5 8 9 10 11 9 11 13 14 12 11 11 10 8 8 9 10 11 9 7 1 2 5 12 15 15 13 14 14 13 15 15 14 15 14 13 14 15
6 1 4 5 4 6 7 9 11 11 13 13 15 17 17 13 11 8 5 6 7 12 14 13 9 3 4 5 12 14 16 14 13 13 13 14 16 16 17 15 14 13 12 12
1 2 3 6 8 5 5 8 11 12 14 14 14 14 14 11 5 3 7 8 12 11 9 6 7 3 3 10 15 14 13 12 12 14 16 17 14 15 15 14 14 14 12 12
6 11 7 6 3 4 10 11 12 11 11 9 10 12 9 2 3 7 11 11 10 9 8 4 3 5 9 14 13 14 15 15 15 16 14 18 15 16 15 14 14 13 14 14
4 7 6 8 10 8 8 7 7 7 6 7 8 4 6 12 11 11 12 10 9 11 7 1 4 10 14 14 15 14 15 16 14 14 16 16 17 18 17 18 16 20 23 24
5 9 8 6 6 8 8 9 9 10 10 10 13 13 14 16 15 14 12 9 6 2 2 6 11 14 15 14 14 15 15 15 15 16 16 17 19 20 20 18 19 20 21 22
5 8 6 10 6 7 9 12 14 14 13 12 11 12 14 13 9 6 4 4 2 6 11 13 16 17 15 15 15 15 15 16 17 17 21 21 20 22 21 22 23 23 22 21
5 5 6 7 8 10 9 10 15 17 17 17 16 14 10 7 5 2 1 6 10 13 14 16 17 16 11 13 17 18 17 16 22 20 20 22 25 25 22 23 23 25 24 22
6 8 10 11 12 13 13 14 17 15 12 9 7 5 4 4 5 6 8 11 13 14 14 17 21 21 20 20 17 17 18 21 23 25 26 28 28 24 25 24 24 25 25 23
9 10 12 13 13 13 12 11 9 8 7 6 6 7 8 10 10 10 11 14 18 20 22 23 23 21 23 23 20 21 23 25 27 29 30 29 28 28 24 26 27 27 25 25
13 15 13 13 13 11 8 7 5 6 7 8 8 8 8 9 11 12 14 16 18 20 21 22 22 22 23 25 24 25 27 28 27 27 27 28 28 27 28 24 25 25 25 24
17 16 13 10 8 7 5 6 6 7 7 7 8 9 11 12 14 17 19 21 23 25 20 24 27 28 28 28 29 28 29 26 26 26 27 29 28 28 26 24 25 25 24 23
13 11 10 8 6 6 7 7 7 7 7 9 11 13 15 18 21 23 24 26 24 22 25 26 28 29 29 29 27 27 23 24 25 24 25 25 25 26 25 23 23 23 21 21
10 8 7 7 6 6 6 6 5 7 10 13 16 18 20 21 21 23 24 25 22 20 23 24 25 27 29 28 30 30 27 28 29 24 22 23 25 22 23 24 21 19 19 20
6 6 6 6 5 4 3 4 6 9 12 14 15 17 20 19 22 21 21 22 23 29 31 29 28 29 31 31 33 35 35 31 29 22 21 21 22 24 26 22 21 21 23 23
6 6 6 5 2 0 3 5 9 12 14 16 17 18 19 18 17 21 24 22 27 28 31 31 32 33 32 30 31 30 29 28 26 22 21 20 19 18 19 20 20 20 18 18
7 6 5 4 2 3 5 9 12 13 15 14 14 18 19 20 19 17 20 24 25 26 24 28 32 31 28 23 17 19 19 18 18 19 17 16 15 16 17 19 20 20 20 21
5 4 4 2 1 3 7 10 10 10 13 13 14 14 16 15 17 20 20 21 22 23 23 23 26 24 23 22 21 20 17 16 17 15 14 14 15 15 16 18 19 20 22 22
6 4 2 3 3 5 8 10 11 10 13 13 13 14 15 15 16 17 18 19 20 21 21 23 24 24 22 21 20 19 17 16 17 16 16 15 16 16 17 18 19 20 22 22
5 4 2 1 5 8 12 12 12 12 12 13 13 13 14 16 17 16 18 18 20 20 21 21 21 22 22 20 19 19 18 17 18 19 18 17 17 17 18 19 20 21 21 20

GFSNGP_850_spd_024.txt.gz
Wind_Speed
13 15 3 10 11 8 12 10 10 10 14 12 9 8 5 3 8 9 13 19 22 23 26 26 25 26 27 26 24 20 21 15 13 16 14 14 15 16 17 18 20 18 16 17
3 11 14 12 14 13 15 13 14 14 13 10 8 8 11 10 9 5 10 13 12 16 17 21 23 25 26 25 24 17 14 17 16 15 13 13 17 17 19 19 18 18 19 17
2 5 6 5 9 16 15 14 12 10 10 7 11 6 6 5 9 6 9 11 12 12 17 18 21 23 26 24 22 15 20 16 12 13 10 15 16 16 17 17 19 21 19 18
1 1 1 7 3 5 5 8 10 11 9 11 15 15 8 9 8 10 4 7 9 11 15 17 18 19 22 20 20 18 14 11 12 10 11 13 18 19 16 17 19 20 19 18
2 4 7 11 2 2 1 3 11 10 11 13 12 11 13 10 5 5 7 8 10 11 11 13 14 16 18 17 13 12 11 7 4 10 16 18 15 15 18 19 19 19 18 16
3 2 4 0 4 3 2 2 10 10 9 10 13 3 4 12 8 7 10 12 11 10 9 8 10 11 13 15 12 7 4 4 5 13 19 19 16 19 20 18 17 15 17 17
3 2 5 2 5 1 2 3 4 7 10 11 7 7 5 10 12 13 13 11 7 1 7 8 11 12 13 11 12 9 4 6 11 16 16 16 18 17 17 19 16 17 21 23
2 2 5 5 5 3 4 5 9 9 10 9 10 12 14 14 12 9 11 4 3 9 14 12 11 15 13 9 5 6 7 9 15 17 16 12 17 20 21 16 17 19 20 20
7 4 5 5 3 3 4 6 6 7 9 11 12 13 13 13 9 5 7 9 9 12 12 11 8 4 2 4 3 4 8 16 17 13 13 17 19 20 19 16 16 17 19 21
2 4 6 4 3 2 3 7 9 11 12 11 11 11 12 10 6 8 12 12 8 7 7 6 6 7 5 3 2 10 15 14 11 15 16 18 17 18 15 20 17 17 19 19
6 9 6 6 12 9 7 7 7 9 9 10 9 10 4 10 12 14 11 9 4 5 3 1 1 2 2 7 13 12 13 14 14 15 16 17 18 15 19 23 21 19 22 19
3 9 3 10 11 9 10 10 10 9 11 14 14 14 12 13 8 7 5 2 4 4 3 3 2 5 9 11 13 14 14 14 15 16 16 16 15 19 23 23 21 21 20 22
3 5 4 10 12 12 13 12 12 12 10 9 8 6 6 7 8 7 6 4 2 3 6 6 9 13 15 15 16 16 16 16 17 17 17 17 21 22 25 25 24 22 24 23
4 3 11 7 10 11 12 13 12 12 12 13 14 14 14 12 9 6 5 4 4 5 9 12 15 16 18 18 18 18 17 19 20 18 18 22 21 23 23 27 28 24 24 25
6 9 14 15 14 13 12 12 14 15 14 14 13 13 11 9 6 5 4 7 9 11 11 12 14 18 17 17 19 21 24 24 22 22 24 26 26 27 29 28 27 29 27 25
10 13 14 14 14 13 13 14 14 12 11 10 8 7 6 4 3 3 5 8 13 15 16 18 20 20 21 21 22 24 24 24 25 27 29 33 29 29 30 32 29 28 28 29
16 15 14 14 14 13 13 13 12 11 8 5 6 6 6 7 6 8 9 11 14 16 19 21 21 19 21 22 22 23 27 28 28 32 34 30 30 28 28 31 33 28 28 27
12 14 14 15 15 13 10 9 8 6 7 8 8 8 8 10 12 13 16 18 20 20 17 14 20 24 27 27 26 26 27 30 31 33 33 30 28 27 30 32 31 31 28 24
19 20 17 14 12 10 9 9 9 9 8 7 7 10 12 13 15 17 20 21 21 19 20 24 26 27 28 27 27 28 29 30 33 37 35 29 27 26 23 25 27 27 25 23
17 14 13 12 11 9 10 10 8 6 7 8 10 12 13 16 17 20 21 20 17 19 23 28 32 31 28 27 29 32 33 33 32 37 36 29 27 23 21 24 22 25 24 21
14 12 12 11 11 10 9 8 5 5 7 10 12 13 15 16 18 20 21 21 18 23 30 34 30 29 31 33 36 38 34 33 32 32 30 33 24 18 18 20 21 19 15 14
11 11 11 10 9 8 6 4 4 6 8 11 13 15 17 18 19 18 15 17 25 29 29 25 28 32 33 32 27 25 24 23 23 26 26 24 15 14 17 17 16 18 19 17
10 11 10 8 6 4 2 3 5 8 10 13 16 18 19 18 17 19 18 23 25 27 25 22 28 28 29 25 24 23 24 24 22 21 21 19 17 15 13 14 14 15 16 18
9 9 8 6 4 2 1 5 6 10 12 11 13 18 19 17 16 14 19 21 21 24 23 22 26 26 26 24 23 23 22 20 23 22 20 18 16 15 14 15 15 17 18 20
7 6 6 4 4 1 1 5 4 7 11 11 13 14 14 14 17 19 18 20 21 21 21 22 23 25 25 24 23 22 21 19 22 22 21 18 17 18 17 17 18 19 19 19
8 6 6 7 5 2 4 6 8 9 12 11 13 11 14 16 18 20 18 18 20 21 21 21 21 21 23 24 21 21 21 21 21 21 21 20 20 19 19 20 20 19 19 20
10 8 4 2 3 5 8 9 10 11 10 15 16 9 14 17 18 20 19 18 19 19 20 20 19 20 21 22 20 20 20 20 20 20 21 22 21 20 21 20 20 19 20 19

GFSNGP_850_spd_027.txt.gz
Wind_Speed
3 5 5 4 3 6 5 6 6 8 7 10 0 6 11 14 11 8 7 18 29 38 40 38 35 31 30 31 32 31 26 19 16 14 14 19 14 15 13 20 20 24 22 19
2 6 7 4 6 7 7 6 2 3 6 6 12 12 14 13 12 8 6 4 7 7 35 32 34 30 30 31 31 32 28 20 14 10 12 13 12 12 14 21 21 20 20 20
3 4 5 6 7 7 5 4 4 4 5 8 10 12 14 12 12 13 5 3 4 7 11 20 26 26 29 30 31 30 22 12 16 19 16 11 9 8 18 22 23 19 21 23
3 3 1 8 1 5 5 5 8 8 8 10 11 24 26 16 16 16 13 10 7 5 5 8 13 19 25 28 27 21 14 22 19 13 10 9 5 11 16 23 20 21 24 24
4 4 5 7 3 2 3 4 5 7 8 15 13 13 17 17 15 13 10 8 7 5 3 6 8 15 23 24 24 22 24 21 14 7 3 4 9 13 20 21 26 23 19 21
2 4 6 6 3 6 4 2 6 12 9 12 13 5 3 10 10 8 12 8 3 3 8 10 14 23 27 27 26 22 14 13 12 5 5 7 11 18 19 24 16 19 19 20
2 2 7 6 7 2 6 6 7 10 9 10 3 2 4 9 5 4 5 1 4 6 9 16 18 21 23 20 16 12 7 3 8 6 6 13 16 16 16 21 24 24 18 20
3 3 6 9 4 6 6 10 9 8 7 6 5 7 9 8 7 4 6 6 5 6 11 11 10 9 12 11 4 4 15 8 3 7 14 14 12 17 21 22 19 17 19 18
6 6 9 8 13 14 11 12 12 11 11 7 9 9 10 10 9 9 8 7 7 5 6 5 2 1 6 13 15 2 3 6 11 12 11 13 18 19 17 17 18 21 23 22
5 2 3 8 19 21 17 14 10 9 6 5 6 5 9 13 13 11 9 8 7 8 8 8 8 10 4 2 4 4 9 12 12 12 14 14 15 15 15 16 19 24 26 21
2 3 21 18 17 16 15 13 10 8 7 9 4 11 12 13 11 9 10 11 10 9 7 5 4 3 1 5 8 11 13 13 13 13 14 15 16 16 15 17 21 24 24 22
4 5 16 11 16 10 11 11 9 6 8 10 8 10 8 11 11 10 9 9 9 9 7 5 6 8 11 13 15 16 15 15 15 16 16 17 18 17 17 22 24 24 26 25
8 11 20 18 12 9 11 10 9 9 10 11 11 11 12 15 14 13 12 11 9 8 7 8 9 11 13 15 16 17 19 18 18 19 20 20 21 21 28 27 23 24 20 21
17 24 19 10 13 12 11 13 12 14 15 17 18 18 17 17 14 12 11 9 6 6 7 9 10 12 13 16 19 22 24 25 26 27 25 24 25 26 26 29 33 34 26 20
10 13 24 24 18 16 13 16 19 21 21 19 17 15 13 12 11 7 3 3 6 9 8 9 12 14 16 17 18 20 23 27 29 30 30 30 31 31 32 34 30 32 30 25
24 23 20 19 21 16 18 20 21 18 14 11 9 7 6 4 2 0 3 6 9 12 12 12 12 14 16 19 22 24 24 23 25 29 33 35 33 35 35 32 31 29 31 31
26 21 22 21 21 21 20 18 16 12 11 9 9 8 7 6 5 5 7 10 11 10 9 13 17 21 23 25 24 27 28 28 27 29 33 35 37 38 34 34 28 28 32 25
13 15 17 25 25 20 17 15 13 11 11 11 9 7 6 7 9 10 12 13 12 10 11 17 22 25 27 26 24 23 25 29 31 31 32 31 33 38 42 36 24 25 25 24
22 25 24 22 16 15 16 15 13 12 11 9 7 7 8 9 10 12 13 13 14 16 19 23 28 30 28 27 28 29 30 33 34 34 31 32 33 39 42 30 23 21 21 20
25 22 18 17 16 14 15 13 13 11 9 7 7 7 8 9 11 12 13 12 13 17 22 27 27 27 28 29 28 26 24 22 23 25 27 31 29 30 25 31 16 13 15 11
18 18 18 17 17 16 14 12 9 7 6 4 5 7 8 10 11 12 13 12 17 22 24 24 26 27 27 28 27 26 25 23 24 25 27 23 21 17 15 9 6 9 12 13
18 17 17 16 16 16 12 9 6 3 2 3 6 8 10 10 12 11 13 16 20 24 23 24 25 25 25 25 24 24 23 22 23 24 24 23 22 19 17 15 14 13 13 14
16 16 16 15 12 11 9 6 4 2 3 5 9 12 13 12 14 15 17 20 21 22 22 22 24 25 25 24 24 23 23 22 23 23 22 20 20 19 19 18 17 17 17 18
14 14 13 12 11 8 5 3 1 3 5 7 11 14 14 14 14 15 18 19 21 23 22 23 23 24 25 25 24 23 23 23 23 23 22 21 20 20 20 20 21 21 21 20
12 12 13 12 11 9 6 8 6 5 6 8 11 12 13 16 17 19 21 21 21 21 21 22 23 21 23 24 24 23 22 23 23 23 22 22 21 21 21 21 21 21 20 19
15 16 15 16 12 8 5 3 4 7 9 10 11 12 12 15 18 20 22 22 22 20 20 22 21 22 22 23 22 23 22 23 22 22 22 22 22 22 21 21 20 19 19 19
16 11 12 11 7 3 3 5 6 7 10 12 13 13 12 15 18 22 22 22 20 18 19 20 20 22 21 20 21 22 21 22 21 22 21 21 22 22 21 21 20 20 20 20

GFSNGP_850_spd_030.txt.gz
Wind_Speed
4 4 1 1 5 4 5 5 5 8 8 10 3 2 11 18 7 7 23 30 34 38 41 43 42 41 38 35 32 32 33 32 29 23 18 16 18 18 18 10 9 10 17 22
2 3 3 3 6 5 5 3 5 5 4 6 9 12 16 11 12 13 10 7 7 18 36 39 40 39 38 35 35 33 33 31 25 18 16 19 21 20 15 10 3 14 21 20
4 4 4 5 7 7 6 3 4 4 4 4 7 9 8 12 12 11 12 12 10 6 4 15 28 32 34 34 35 33 32 24 20 20 21 22 19 15 7 7 13 14 19 18
3 3 2 7 5 3 9 5 6 9 5 7 15 19 20 16 17 15 12 10 7 6 4 4 11 20 27 34 31 31 27 24 24 26 27 22 12 2 13 13 12 21 21 22
4 3 5 6 4 5 5 1 1 6 5 9 16 18 13 13 14 12 8 5 2 3 5 5 15 21 26 27 29 30 25 24 19 12 7 1 9 14 7 15 19 19 20 17
3 4 7 7 4 5 6 1 6 11 5 6 6 3 3 7 4 3 3 3 0 3 5 9 12 19 24 28 32 29 25 18 9 5 16 13 4 5 14 16 16 17 20 22
2 3 7 8 7 4 5 6 10 13 11 8 3 4 5 7 7 4 5 7 6 7 3 5 11 17 23 23 20 12 8 8 9 15 10 5 10 13 13 14 18 21 21 19
3 2 7 8 5 7 7 12 16 13 10 12 14 13 13 11 10 9 9 11 10 10 13 13 11 6 7 5 6 8 12 17 13 4 9 10 10 11 14 17 19 20 18 18
8 6 6 4 5 21 21 19 15 16 12 12 11 12 13 13 12 11 11 12 12 11 13 11 8 4 2 6 7 7 1 3 8 10 10 11 13 15 17 17 18 19 19 22
4 4 4 16 19 22 20 20 18 15 13 9 13 14 14 13 13 14 14 13 11 9 8 7 4 5 6 7 6 5 7 10 12 13 14 14 15 17 18 19 19 20 21 26
4 1 17 13 18 22 21 19 17 15 12 11 12 14 13 16 15 14 12 10 8 8 10 11 10 8 7 6 8 10 12 14 15 16 17 17 18 19 20 19 19 22 25 28
5 19 10 10 17 18 18 15 13 11 15 15 13 17 15 16 14 12 12 13 13 12 10 9 7 7 9 10 12 14 15 16 17 19 19 21 23 25 23 23 22 25 24 21
10 20 16 25 19 14 16 14 13 13 13 15 15 15 15 17 16 15 15 12 10 9 6 5 6 6 9 12 15 18 21 22 22 22 24 27 29 28 31 30 29 29 28 30
24 29 22 22 14 15 15 17 16 19 19 19 20 18 19 19 16 13 11 8 6 5 4 5 7 10 12 15 16 17 18 20 23 26 27 29 32 34 36 38 38 36 32 29
26 8 20 23 22 19 18 22 24 25 24 22 19 18 15 14 11 9 6 3 3 4 4 5 7 9 14 17 20 22 24 25 26 29 29 30 33 35 33 34 37 39 33 32
19 20 26 25 23 22 23 23 24 23 20 19 16 14 11 8 5 3 3 2 2 4 6 9 12 16 20 23 25 26 28 28 27 29 30 30 31 31 34 35 34 39 34 34
32 24 26 26 24 25 23 21 22 20 18 15 13 11 9 8 6 4 3 3 4 5 8 13 17 20 24 27 28 28 29 30 30 31 31 31 31 31 34 36 36 37 40 41
11 23 21 20 26 26 23 20 18 16 15 14 13 11 8 6 5 4 4 5 6 7 11 16 20 23 24 25 26 26 25 25 24 24 25 25 25 26 29 33 35 36 35 34
18 20 22 24 24 22 21 19 17 15 15 13 10 8 7 5 4 5 6 8 10 13 17 20 22 23 23 23 24 24 24 24 23 23 22 23 24 24 22 24 26 24 20 12
23 23 25 23 20 16 20 18 17 16 14 11 8 6 4 4 4 6 9 11 12 15 18 21 22 22 22 22 22 22 22 22 23 23 23 23 23 23 24 23 22 19 14 9
25 24 23 21 21 17 16 17 15 14 12 9 5 3 2 4 6 7 8 11 13 16 19 19 21 23 23 23 22 22 22 22 22 23 23 23 22 22 22 22 21 20 19 17
22 22 21 16 16 19 17 15 12 10 8 5 2 1 3 5 8 10 11 12 15 17 19 21 22 23 23 23 22 22 22 22 22 23 22 22 22 23 22 23 23 23 23 24
21 17 16 19 19 18 16 13 10 7 5 2 1 3 6 7 8 9 11 14 16 18 19 21 22 22 23 23 23 23 22 22 22 22 22 22 22 22 22 23 23 23 23 22
18 19 20 18 16 15 14 12 8 5 2 2 5 7 7 8 10 12 14 15 18 20 20 21 22 22 22 23 23 22 22 22 22 22 21 21 21 22 22 23 23 22 22 21
18 18 17 17 15 13 10 9 7 4 3 4 6 8 9 10 11 12 15 18 20 21 20 21 22 22 21 22 22 22 21 21 21 21 21 21 22 22 22 22 22 22 21 21
18 20 19 16 14 11 9 9 7 5 6 7 8 9 10 12 13 14 17 20 21 21 20 20 21 20 20 21 21 21 21 20 20 21 21 21 22 22 22 22 22 21 21 21
20 21 19 17 12 9 7 5 4 7 7 8 10 11 13 13 14 17 19 21 21 20 18 19 20 20 20 20 20 20 20 20 20 20 20 21 22 22 22 22 22 22 22 22

GFSNGP_850_spd_033.txt.gz
Wind_Speed
3 3 4 5 5 6 7 5 6 8 7 8 4 7 9 11 8 9 15 22 29 31 31 34 37 38 39 40 38 33 30 30 29 31 30 26 25 21 17 19 15 10 9 8
3 3 3 4 7 6 5 4 7 5 6 3 3 3 12 8 9 11 8 4 10 19 27 34 37 38 38 36 34 34 31 30 31 29 24 21 20 24 20 19 13 10 14 23
4 2 2 6 8 7 7 6 6 6 8 2 2 5 10 15 15 14 11 8 6 2 3 9 19 26 30 32 31 31 33 31 31 27 25 25 24 22 18 11 5 16 24 15
3 3 1 7 2 7 5 2 4 5 5 4 8 14 15 14 15 13 9 8 6 4 1 2 6 12 19 24 26 28 28 28 27 27 24 21 20 16 7 9 21 26 13 19
4 4 4 4 4 6 5 3 3 6 7 11 16 16 12 10 7 6 6 5 4 4 4 5 8 12 16 19 21 23 23 21 20 19 17 11 6 9 19 23 13 13 19 19
3 5 8 8 4 6 6 2 6 6 7 9 5 3 3 5 5 4 3 2 0 2 2 2 2 6 10 12 16 18 19 20 17 8 4 7 13 17 15 10 14 15 18 21
2 3 7 8 5 9 6 7 17 18 16 14 5 5 12 10 7 5 4 4 3 4 3 5 4 0 3 9 12 14 15 13 12 16 16 16 11 10 12 13 14 18 22 22
3 3 7 8 6 8 6 13 24 18 14 13 14 15 16 13 11 9 9 9 9 9 12 13 11 6 9 6 5 4 9 12 13 8 8 10 11 12 13 15 19 21 23 24
8 6 4 6 4 8 22 29 22 20 19 19 21 20 18 15 13 13 13 13 12 11 12 12 9 5 2 2 1 1 3 3 6 9 11 13 15 16 18 19 22 23 25 25
4 2 4 7 13 24 21 24 21 18 21 21 22 20 18 17 17 16 14 13 11 9 9 7 7 8 8 7 5 4 5 8 10 12 14 15 17 19 21 22 24 26 26 26
1 1 5 7 14 22 21 21 22 21 19 19 18 20 20 20 18 16 14 12 9 9 12 12 10 7 5 3 4 6 8 10 11 13 15 17 19 21 23 25 27 30 29 29
6 19 9 15 21 22 23 22 20 19 19 17 16 21 20 20 17 15 15 15 14 13 11 9 5 2 3 5 8 11 14 16 18 21 22 24 26 29 27 28 29 30 32 32
8 27 11 26 25 23 23 20 18 16 16 20 19 19 20 21 19 19 17 14 11 9 6 3 1 3 6 9 12 15 18 20 23 25 27 29 30 32 37 41 35 34 33 35
18 30 19 28 18 22 20 20 19 19 18 19 22 22 23 23 21 17 14 11 7 4 2 0 3 6 9 13 16 18 20 22 24 26 28 29 30 31 30 31 37 41 39 38
26 15 24 26 27 24 22 24 24 24 25 25 22 22 19 20 17 14 11 7 4 2 1 3 6 9 13 16 20 22 25 26 28 28 28 28 30 30 31 31 32 33 35 35
17 19 27 31 29 27 27 27 28 28 24 24 22 20 18 15 13 10 8 6 4 3 4 7 11 15 18 21 23 25 26 26 28 28 28 28 28 28 28 28 29 31 31 33
30 22 28 28 29 29 28 26 25 26 25 23 20 18 14 12 10 8 5 3 1 3 7 11 14 17 21 23 25 26 27 27 27 26 26 25 25 24 23 24 25 27 28 30
13 18 23 26 30 30 28 25 24 23 22 20 18 16 14 11 8 6 4 0 4 7 9 12 16 19 21 23 24 25 25 25 25 25 25 25 24 23 23 23 24 25 24 21
15 23 22 22 25 28 27 26 23 21 20 19 17 15 12 9 6 3 1 3 6 9 12 16 18 20 21 23 23 23 24 24 24 24 24 24 23 23 23 23 24 24 25 26
26 25 24 25 25 24 26 23 22 21 18 16 14 11 8 5 3 1 3 6 8 12 15 18 19 20 21 22 23 23 23 23 24 24 24 24 23 24 24 24 24 25 25 25
23 25 27 27 25 22 21 19 16 19 17 14 10 8 5 4 2 3 6 8 11 13 16 18 20 20 21 22 23 22 22 22 23 23 23 24 23 23 24 25 25 26 26 25
26 27 25 24 25 21 16 17 17 16 15 13 10 7 4 3 3 5 7 10 12 15 17 19 20 21 22 23 22 22 22 22 22 22 22 22 23 24 24 25 26 26 26 25
22 24 25 19 18 19 20 18 15 13 11 9 7 5 3 4 6 8 10 11 13 16 18 19 20 20 21 22 22 22 22 21 22 22 21 21 22 23 24 25 25 25 25 25
21 16 16 16 19 19 19 17 14 11 8 7 5 3 4 6 8 9 10 12 14 16 18 19 19 20 21 21 21 21 21 21 22 21 21 21 22 22 23 24 24 24 24 24
15 15 16 17 17 16 15 14 12 10 7 5 4 6 8 9 10 10 11 13 15 17 19 19 19 20 21 22 21 21 21 21 21 21 22 23 23 23 24 24 24 24 24 24
17 18 18 17 15 14 12 11 9 6 5 7 8 9 9 9 10 11 13 14 17 19 19 18 19 20 21 21 21 20 20 20 20 21 22 22 23 24 24 24 23 23 24 24
17 18 17 14 11 9 9 9 8 8 9 9 10 10 10 11 12 13 15 17 18 19 18 18 18 20 20 21 20 20 20 20 20 21 21 21 22 24 24 24 23 23 23 23

GFSNGP_850_spd_036.txt.gz
Wind_Speed
4 4 4 5 4 8 7 5 6 7 7 9 7 5 10 12 7 7 9 12 13 16 18 18 20 23 24 25 27 27 25 25 26 27 27 27 27 25 24 21 22 21 18 16
2 2 2 3 5 5 4 3 5 6 7 7 4 2 3 2 5 11 8 4 1 3 7 12 15 19 22 24 25 26 25 24 28 28 29 27 25 24 26 29 26 24 20 14
4 3 4 7 9 9 6 5 7 7 10 6 2 3 5 10 14 16 15 13 11 10 7 4 4 6 10 14 18 20 23 26 27 27 24 21 20 19 20 22 23 20 15 22
3 2 2 7 1 3 8 7 6 5 3 7 10 10 11 10 12 14 13 12 10 8 7 5 4 6 8 10 13 15 18 20 21 21 20 18 19 20 19 12 10 17 24 26
5 4 5 4 5 7 8 8 7 6 6 15 20 15 10 9 10 11 10 10 8 7 6 5 5 6 7 6 7 8 10 12 12 14 17 18 16 15 13 21 23 25 20 16
3 5 8 8 5 8 4 4 8 11 9 12 11 4 3 8 8 8 6 5 4 4 4 3 4 5 4 2 0 3 6 10 12 13 11 12 13 17 21 17 16 15 17 18
2 3 7 8 4 10 6 8 18 26 26 20 5 5 14 11 8 6 5 6 6 6 7 8 8 7 7 9 8 8 5 4 5 9 15 17 13 11 11 13 15 17 19 21
3 3 7 9 5 9 7 3 27 26 24 18 12 15 17 13 9 8 8 10 10 11 13 14 13 8 11 9 8 4 1 3 6 6 6 8 10 11 14 16 19 21 24 26
9 7 4 14 6 15 9 13 25 25 22 20 21 20 18 16 14 13 13 14 14 13 15 14 11 8 7 8 5 4 3 3 4 7 9 11 13 15 17 19 23 25 26 29
4 5 6 10 16 12 16 22 26 24 23 22 22 22 21 19 18 16 16 15 13 12 13 13 10 8 7 6 4 2 3 5 8 10 12 14 16 18 21 22 24 26 28 31
3 4 2 13 17 16 19 21 24 22 22 23 22 23 21 21 19 18 17 15 12 12 11 10 8 5 4 3 3 5 8 10 12 15 17 20 21 23 25 26 26 29 32 34
7 15 12 11 22 22 23 24 23 25 23 20 20 21 21 21 20 18 16 15 13 12 9 8 5 3 2 4 7 10 12 14 17 21 23 25 28 31 29 30 31 30 30 29
7 19 16 14 25 24 24 22 22 21 21 23 20 20 22 23 21 20 18 15 12 11 8 6 3 1 4 7 10 13 16 19 21 24 26 27 29 31 36 36 32 31 30 27
13 25 13 24 18 25 24 24 22 21 20 20 22 23 24 24 23 19 17 15 12 9 6 3 1 3 6 10 13 15 18 19 21 23 25 26 26 27 28 31 36 37 32 29
25 17 17 27 27 27 24 25 24 24 24 25 24 24 24 24 22 20 17 14 10 7 4 1 3 6 9 12 15 17 20 22 23 24 24 25 26 27 27 27 28 30 33 33
18 13 22 29 32 30 28 27 28 29 27 27 27 24 23 21 20 18 14 10 8 5 2 2 6 9 12 15 17 19 21 22 24 24 25 25 26 27 27 26 27 28 28 28
27 20 27 30 31 30 28 27 26 29 29 27 26 25 23 20 17 15 13 10 6 3 2 5 9 12 15 17 20 22 22 23 24 24 24 25 25 25 25 25 26 27 27 27
13 16 22 27 34 33 31 29 29 29 28 28 26 23 19 16 15 14 11 8 4 2 4 7 11 14 16 18 20 21 22 22 23 24 24 24 24 24 24 25 26 27 28 27
9 20 21 23 25 27 28 28 26 28 28 25 22 19 16 13 12 11 9 5 2 4 6 10 13 16 18 19 20 21 21 21 21 22 23 23 23 23 24 25 26 26 27 28
21 22 24 24 24 25 27 24 26 25 23 21 16 17 17 14 12 9 5 3 3 6 9 12 15 17 18 19 20 20 21 21 21 22 22 22 23 23 23 24 25 26 27 27
22 22 22 22 24 24 25 23 21 23 19 17 18 16 14 13 9 6 4 5 6 9 12 15 16 17 17 18 20 20 20 20 20 21 22 23 23 23 24 24 25 26 26 26
18 20 24 25 26 24 22 22 18 17 18 17 16 13 11 9 7 5 5 6 7 11 13 16 17 18 18 18 19 19 19 19 20 21 22 23 24 24 25 25 25 26 26 26
22 25 24 22 22 23 20 17 15 15 16 14 12 10 8 7 6 5 6 8 10 13 15 17 18 18 18 18 18 18 19 20 20 21 22 22 23 24 25 26 26 26 26 26
21 20 20 20 18 18 18 16 15 13 11 11 9 7 5 4 5 7 9 10 13 15 16 18 18 18 18 18 18 19 20 21 21 21 22 22 23 23 23 24 25 25 25 25
17 16 16 16 15 16 15 15 13 11 9 7 5 3 4 7 9 10 11 13 15 15 18 19 18 17 18 19 19 20 20 21 21 21 22 22 22 23 23 24 25 25 25 25
15 15 15 12 12 12 11 9 8 7 6 5 6 7 8 9 12 13 14 15 16 17 18 18 17 17 18 19 20 20 20 20 20 20 21 21 22 23 24 24 24 25 25 25
14 13 12 12 10 8 7 7 5 5 6 8 9 9 10 12 13 14 15 16 17 17 18 17 16 17 18 19 20 20 20 20 20 20 20 21 21 22 24 24 24 24 24 25

GFSNGP_850_spd_039.txt.gz
Wind_Speed
4 3 5 5 6 11 9 6 7 8 9 8 7 6 7 11 10 4 1 2 4 4 4 4 4 6 10 13 15 14 13 14 14 14 15 16 18 18 18 20 24 25 26 25
4 3 5 5 3 9 10 2 8 5 10 9 5 6 3 1 4 10 11 11 10 8 7 5 3 3 4 5 6 7 8 9 11 12 15 18 18 17 17 20 25 26 24 19
4 1 1 4 8 10 4 5 6 8 11 4 6 6 7 8 12 15 17 19 19 17 15 12 8 5 3 1 2 4 6 9 11 13 15 16 16 19 20 21 25 22 22 29
3 2 7 2 1 3 11 9 10 8 7 6 5 8 11 12 16 16 16 18 17 14 12 10 8 6 5 4 4 3 3 4 6 7 10 11 13 15 15 17 16 25 22 25
5 5 4 2 5 7 7 15 11 13 6 8 17 12 5 12 14 16 16 15 14 11 10 9 8 8 7 6 7 6 4 2 1 3 5 7 9 11 9 17 15 18 23 20
3 5 9 4 3 8 5 13 8 13 10 19 17 7 5 15 15 15 13 13 13 13 12 10 10 9 8 10 9 9 9 8 6 3 1 4 6 12 15 15 14 15 16 17
3 3 6 6 5 12 6 12 11 19 22 25 9 3 22 20 17 14 13 13 13 13 13 13 12 11 12 13 12 11 9 6 3 3 7 9 7 6 7 10 13 15 18 19
3 2 6 11 8 10 7 4 10 21 27 23 14 20 26 21 18 16 15 15 14 16 17 16 14 10 13 12 12 8 5 2 1 1 2 4 6 8 11 14 17 19 22 25
9 7 3 26 8 24 8 7 10 26 31 28 24 26 26 24 20 19 18 18 18 17 18 16 14 11 10 10 8 5 4 2 1 4 6 8 10 12 14 17 20 23 26 29
3 6 8 18 24 13 17 13 12 26 33 29 26 27 27 25 24 23 21 21 19 18 17 17 14 11 9 9 7 4 2 2 5 7 9 11 13 16 18 20 22 25 26 28
3 4 2 16 24 22 19 16 16 23 29 30 27 29 28 27 26 25 24 22 20 18 17 16 14 11 10 7 5 1 2 5 7 10 13 15 17 19 20 20 20 22 23 24
7 16 13 17 33 26 23 21 22 28 27 26 27 30 29 28 27 27 25 23 21 18 16 16 12 9 7 4 2 3 6 8 11 14 16 18 20 21 21 22 22 21 20 20
5 10 20 11 17 28 26 26 26 28 29 30 28 28 30 31 29 27 25 23 20 19 16 13 10 6 4 3 4 6 9 11 14 16 18 20 22 24 26 25 25 24 22 22
18 13 8 14 12 23 24 27 26 25 26 27 30 30 30 31 30 27 25 22 19 17 14 11 8 5 3 3 6 9 11 13 15 17 19 20 22 23 24 25 27 26 26 26
16 20 15 20 18 27 26 27 28 29 29 30 30 33 32 33 31 28 24 21 18 14 12 9 5 3 2 5 8 10 12 15 16 17 18 20 21 22 23 24 26 27 28 28
23 15 13 23 28 28 30 29 31 31 31 32 33 33 32 30 29 26 23 18 15 13 9 6 3 2 4 7 9 12 14 16 16 17 18 19 20 22 23 24 25 26 27 29
16 10 14 20 26 28 27 24 24 29 30 32 33 33 33 31 28 25 22 17 13 10 7 3 1 4 6 9 11 14 15 16 16 17 18 19 20 21 22 22 23 25 25 25
9 7 13 16 26 29 26 26 27 28 30 30 30 29 26 25 25 22 18 15 12 8 4 1 2 5 8 11 13 14 15 15 16 17 18 18 19 20 20 21 22 24 25 25
6 6 5 15 24 24 25 26 28 28 28 28 28 25 20 18 17 15 15 12 9 6 3 2 5 7 10 12 13 14 14 15 15 16 17 18 18 19 20 21 21 22 24 25
11 15 16 21 21 24 27 25 26 27 25 24 23 22 19 15 15 12 13 10 7 4 3 4 6 9 11 13 14 14 15 15 15 16 17 17 18 18 19 20 21 22 24 24
15 20 23 24 25 24 25 27 28 29 26 22 18 17 17 16 15 13 11 8 6 4 3 5 8 11 12 14 14 14 14 15 15 16 17 17 17 18 19 20 21 23 24 24
21 23 23 23 25 27 25 24 23 23 20 17 16 16 16 18 15 12 9 5 4 4 5 8 11 13 13 13 14 14 15 15 16 16 17 17 18 19 20 21 22 23 24 24
18 20 23 24 25 26 25 21 16 16 16 15 14 14 14 12 10 6 5 4 5 6 8 11 14 15 15 14 14 15 15 16 16 16 17 17 19 20 21 21 22 23 24 24
22 22 23 22 21 21 20 18 16 13 12 12 11 8 5 4 4 4 5 5 7 10 11 14 15 16 15 15 15 16 16 16 16 16 17 18 19 19 20 21 22 22 23 24
20 20 18 17 18 17 17 14 12 11 8 7 6 5 4 4 7 7 7 8 10 12 14 16 17 17 16 16 16 16 17 17 17 17 18 18 19 19 20 21 22 23 23 24
18 18 17 15 14 12 11 9 7 7 4 3 3 5 7 8 8 8 9 11 13 14 16 17 17 17 16 16 16 17 17 17 17 18 19 19 19 19 20 21 22 23 23 23
20 18 17 17 14 11 8 6 4 2 1 4 6 7 8 9 10 12 13 14 16 16 17 18 17 17 16 16 16 17 18 18 19 19 19 19 19 20 20 22 22 22 22 22

GFSNGP_850_spd_042.txt.gz
Wind_Speed
16 16 15 17 15 14 16 16 13 13 14 13 12 12 10 4 5 4 4 6 7 8 8 8 8 8 9 9 9 8 8 8 9 9 8 9 8 10 12 15 17 20 21 22
12 12 13 15 16 16 18 17 13 17 18 14 17 8 8 5 3 5 7 8 8 9 10 9 10 9 8 7 6 5 5 5 4 5 6 7 9 11 12 13 14 16 22 27
14 10 9 10 14 16 15 13 16 16 16 15 11 12 11 6 7 10 12 12 13 12 13 12 12 11 10 9 7 6 5 3 2 3 4 6 7 8 10 11 13 14 21 22
6 4 8 12 4 16 18 18 17 16 17 14 12 6 7 7 12 14 15 15 15 15 17 16 14 12 10 9 8 7 7 6 5 4 2 1 1 2 3 5 8 9 10 15
5 9 10 5 6 9 12 18 15 18 17 11 7 10 7 9 12 14 14 15 15 15 15 15 14 13 13 13 13 12 12 11 11 10 8 7 5 3 1 1 6 10 13 17
4 7 9 9 13 13 5 16 9 13 14 11 16 9 7 17 16 16 16 16 16 16 16 16 16 15 15 15 14 14 13 13 12 10 8 6 2 5 7 8 8 8 8 10
10 7 6 3 11 15 9 14 3 9 13 18 14 7 23 24 19 16 15 17 17 16 16 16 16 16 17 16 15 13 12 9 6 3 2 2 3 2 2 4 7 9 13 14
7 6 10 15 12 11 12 3 7 10 14 21 15 16 24 24 21 19 18 18 16 17 17 16 16 15 15 14 13 10 7 6 4 5 4 2 2 4 6 7 9 11 13 15
9 6 4 31 18 25 10 9 10 12 14 21 21 23 25 25 23 21 20 19 18 18 18 17 15 13 14 12 10 9 8 8 6 3 2 2 3 5 5 7 9 11 13 14
2 9 12 17 22 11 15 14 10 11 18 25 27 27 26 24 23 23 21 20 20 20 19 19 16 15 12 12 12 11 9 6 4 1 2 4 5 6 7 10 11 13 13 14
7 12 5 14 20 22 15 15 15 13 22 28 28 29 29 27 26 25 24 22 21 20 19 18 17 15 14 13 11 9 7 5 2 1 2 4 6 8 9 10 14 15 15 16
7 14 13 19 13 20 21 24 20 20 23 25 29 31 29 28 27 27 26 24 22 21 21 20 19 17 16 13 11 8 5 3 0 2 4 4 5 5 14 12 13 14 15 17
9 11 12 11 14 10 19 18 19 21 24 31 27 28 28 28 27 27 25 24 23 23 22 21 19 17 15 12 9 6 4 1 2 3 5 6 7 7 7 10 17 18 19 19
23 18 11 19 13 14 15 18 21 19 21 24 26 26 27 27 28 26 25 24 25 26 24 22 19 15 13 9 6 4 2 2 3 5 6 7 8 9 9 10 12 12 15 21
19 19 16 11 12 10 17 20 20 22 23 24 25 28 29 29 27 25 25 26 27 26 23 20 17 14 10 7 5 2 1 4 5 6 7 8 10 10 11 12 13 13 15 15
17 16 17 11 10 11 10 13 21 20 22 24 25 25 26 26 25 23 22 24 24 21 18 17 14 12 8 4 2 2 3 6 7 7 8 9 11 11 12 13 14 13 14 16
6 5 8 11 16 15 17 13 14 19 20 20 22 25 26 29 31 31 29 25 17 15 14 11 8 7 5 3 1 3 5 7 8 8 9 10 11 12 13 14 15 14 14 17
6 7 8 9 15 17 17 18 18 20 22 27 30 33 32 30 30 27 23 22 20 14 10 8 7 4 2 2 3 5 6 7 8 9 10 11 11 13 14 15 15 14 16 18
2 3 5 8 12 17 19 24 25 25 26 27 29 30 30 26 25 22 20 15 13 11 10 8 4 2 3 4 6 7 8 8 9 10 11 12 12 13 14 15 16 16 18 19
8 8 9 13 15 18 20 20 23 24 26 28 29 28 25 23 21 19 18 15 12 9 7 4 3 4 6 7 8 9 9 9 10 11 12 12 13 14 15 16 17 17 18 17
13 14 16 17 19 19 22 23 28 31 28 27 26 24 23 20 18 15 12 9 8 6 4 4 4 7 9 11 10 10 10 11 11 12 13 13 13 14 15 16 16 17 17 17
20 22 22 24 25 27 25 26 27 28 23 19 18 18 18 18 14 11 9 6 5 4 4 6 8 10 12 12 12 12 12 12 13 13 12 13 14 15 15 16 17 17 18 18
25 25 27 28 29 29 26 23 20 18 18 17 16 14 10 10 8 5 4 5 5 6 6 9 12 15 15 13 14 14 13 14 13 13 14 14 15 16 16 16 17 18 19 20
27 26 27 26 24 22 23 20 17 15 14 13 11 9 6 4 3 3 4 5 7 9 11 12 13 16 16 15 15 15 14 13 14 13 14 15 15 16 16 17 18 18 20 21
26 25 23 21 21 22 19 15 14 12 10 9 7 5 3 2 4 6 7 7 8 10 13 14 15 16 16 16 15 16 15 14 14 15 15 15 16 16 17 18 19 20 21 21
24 24 23 22 20 17 14 12 12 11 8 6 3 3 4 5 5 5 7 9 11 13 14 16 16 16 16 15 16 16 16 15 14 14 16 17 17 18 18 19 20 21 21 21
25 23 21 21 19 16 13 11 9 8 5 5 5 5 6 7 8 9 10 12 13 14 15 16 16 16 16 16 16 15 15 14 16 18 18 18 18 18 19 20 20 21 21 21

GFSNGP_850_spd_045.txt.gz
Wind_Speed
22 20 15 20 20 21 21 18 17 15 16 13 12 9 11 6 1 6 8 9 11 12 13 13 13 13 14 13 13 13 13 12 12 10 8 6 3 4 6 8 10 12 13 16
23 21 18 18 18 19 19 18 19 18 19 13 14 15 12 12 8 10 9 8 9 12 13 13 13 14 14 13 12 11 13 11 10 9 8 9 9 8 6 6 8 7 8 8
16 17 18 17 18 20 18 18 16 17 15 15 14 12 10 14 10 10 10 11 12 13 13 14 13 13 14 14 14 14 14 13 12 10 9 8 6 4 3 2 2 2 3 5
10 3 18 10 16 20 21 21 19 18 18 18 19 19 8 6 10 12 13 14 15 16 17 17 17 17 17 16 16 15 15 13 11 10 8 7 7 6 5 4 2 1 2 4
9 12 14 18 14 11 15 17 18 18 17 18 17 2 7 8 12 16 17 18 17 18 18 18 17 17 17 17 16 15 14 13 12 11 11 11 9 6 5 4 4 5 5 8
7 14 18 14 16 16 14 15 16 15 13 8 6 7 10 20 19 19 19 18 19 18 18 17 17 17 18 17 17 16 15 14 13 11 10 9 7 6 3 3 1 0 1 3
12 8 8 10 13 15 15 11 6 5 9 10 10 13 4 22 22 21 19 19 19 18 17 17 17 18 18 17 17 16 15 14 11 9 6 5 7 6 5 3 2 3 5 5
9 13 16 6 9 12 17 24 9 11 11 12 11 10 20 23 24 24 23 21 19 19 19 18 18 19 18 18 16 15 13 9 9 10 9 7 6 4 2 1 1 3 5 6
9 6 10 21 18 26 23 19 13 14 12 13 18 21 24 26 26 25 24 23 21 20 20 18 17 18 18 17 16 13 12 12 10 9 7 6 4 2 1 1 2 4 6 6
13 11 12 11 21 19 13 21 18 14 14 17 23 24 27 27 27 27 25 24 22 22 21 19 17 16 16 16 15 14 13 11 10 9 6 5 4 2 1 1 3 5 6 7
17 17 22 20 16 17 19 16 15 14 15 19 23 27 29 29 28 27 25 23 23 22 21 20 19 18 17 16 15 14 12 10 9 8 6 4 3 3 3 8 8 9 10 11
8 14 11 15 19 10 17 19 18 17 17 21 24 27 29 28 27 26 26 24 23 22 22 21 19 18 16 15 14 14 12 10 9 7 6 4 3 5 8 9 9 10 12 13
14 19 16 19 11 12 16 15 15 18 20 21 23 25 27 26 27 27 25 23 22 22 21 20 19 17 15 16 16 14 11 9 8 5 4 4 2 2 2 12 14 16 17 16
23 20 15 19 11 13 12 11 14 15 18 21 22 24 25 25 26 26 25 23 23 21 19 18 17 17 15 14 13 12 10 9 6 3 3 2 3 4 4 6 6 6 12 17
12 12 18 13 12 10 9 10 9 13 15 18 22 24 25 26 26 24 23 23 22 21 20 19 19 17 15 12 10 9 7 5 4 5 6 6 6 6 6 7 7 8 9 10
10 9 11 10 10 9 8 11 15 16 15 15 19 21 22 22 24 26 24 24 24 22 22 22 18 13 11 9 6 3 4 4 4 5 6 6 6 6 6 7 7 8 9 11
10 10 10 11 10 7 8 7 10 16 22 19 18 23 25 30 31 32 28 27 25 26 23 19 15 13 8 4 6 5 6 5 6 6 7 8 8 8 8 8 8 9 9 12
9 10 8 7 7 6 6 7 11 15 19 25 29 35 37 34 32 28 29 28 23 21 18 15 12 10 8 9 8 6 6 7 7 8 8 10 10 10 10 9 9 10 11 12
7 5 6 7 7 9 12 14 18 20 24 29 34 34 33 26 26 29 27 24 21 18 14 11 8 7 6 6 7 7 7 8 8 9 10 12 10 10 9 9 10 11 12 13
7 7 7 9 11 9 14 15 18 21 21 23 25 27 30 31 28 26 21 18 14 11 10 7 5 4 5 5 6 7 8 9 10 10 12 11 9 11 10 11 12 12 12 13
15 14 16 18 21 20 21 20 22 25 24 26 31 32 30 27 22 18 14 12 9 7 5 2 3 4 6 6 7 8 10 11 11 11 11 9 10 10 11 11 12 12 13 13
23 25 26 28 29 28 26 27 29 29 27 25 23 23 22 20 16 12 8 6 5 3 2 4 5 5 8 9 10 11 11 11 11 11 9 10 11 11 11 12 13 13 14 14
29 29 30 32 33 33 30 27 26 24 24 21 20 17 16 15 12 8 7 2 2 3 3 6 9 11 10 10 11 11 11 11 11 10 11 11 12 12 13 13 13 14 14 14
32 31 30 28 27 28 30 26 23 22 20 18 17 15 11 8 5 3 2 3 3 3 6 9 10 12 13 12 11 11 11 10 11 11 12 14 14 14 14 14 14 14 15 16
30 28 27 26 27 25 23 21 21 18 16 15 12 10 7 6 2 2 2 3 3 4 10 12 13 14 13 10 10 11 11 11 11 13 13 12 13 14 14 15 15 15 18 19
27 27 26 25 23 21 19 18 18 16 13 12 11 9 8 7 6 4 4 6 8 8 9 9 11 13 10 10 12 12 13 12 12 12 15 14 14 15 15 15 15 17 17 19
23 20 19 20 20 18 16 15 14 13 11 11 9 8 7 7 7 6 6 7 8 10 9 10 11 12 13 13 12 12 13 13 14 15 15 15 14 14 15 15 16 19 20 21

GFSNGP_850_spd_048.txt.gz
Wind_Speed
15 18 18 20 21 20 20 15 14 11 16 17 12 6 4 9 5 4 6 7 10 12 18 17 16 17 17 19 21 21 19 22 24 25 19 18 16 15 17 18 17 16 17 16
15 16 20 13 22 19 19 21 19 19 17 15 16 16 20 12 11 12 9 10 11 15 18 20 18 20 24 22 21 17 20 20 18 15 13 10 10 9 10 11 10 8 7 8
12 15 18 19 18 19 15 15 12 15 12 12 8 13 12 12 10 11 10 8 9 13 16 21 20 22 20 20 20 21 20 19 18 18 18 18 15 13 11 9 8 7 7 6
4 1 22 10 13 15 14 15 18 16 13 12 12 17 17 0 1 10 13 13 13 15 18 20 21 21 21 21 22 19 19 19 18 17 15 14 13 12 11 10 8 7 7 6
5 10 12 16 16 11 11 16 19 19 17 18 19 1 1 3 6 11 17 18 18 17 18 20 23 22 24 23 23 22 19 17 16 15 15 14 14 12 10 8 9 11 9 6
2 8 17 9 14 22 14 14 11 13 13 12 14 3 3 10 11 17 20 20 20 21 22 22 23 25 26 24 22 21 19 18 17 16 16 15 14 14 11 10 7 7 6 5
9 7 5 6 14 23 19 8 12 14 21 9 1 2 4 14 19 21 23 24 24 24 25 25 25 26 24 24 22 21 21 20 20 19 16 12 9 10 11 11 10 12 10 8
6 6 13 1 10 18 9 22 15 18 14 6 4 7 13 24 25 26 26 26 27 26 26 25 25 25 25 24 24 25 23 20 16 13 12 13 14 14 13 10 9 6 7 6
7 3 14 21 18 14 14 11 17 15 16 13 11 15 21 26 26 27 27 28 27 27 26 24 23 24 25 26 24 22 18 17 17 16 15 14 12 12 11 9 11 11 9 8
5 14 18 17 19 18 17 17 16 16 15 9 14 20 23 24 26 28 28 28 26 26 27 26 24 23 22 21 19 20 19 17 17 16 14 14 11 11 13 13 10 8 8 9
11 14 21 27 23 28 11 10 12 14 12 9 10 22 24 26 27 28 28 27 27 27 26 24 23 23 21 20 21 20 19 18 18 17 13 15 14 11 10 7 7 8 10 10
4 9 11 7 7 19 11 19 23 14 12 15 13 19 22 24 26 27 28 27 26 24 24 23 23 21 21 20 19 21 22 20 17 18 15 8 6 7 7 7 8 8 9 10
9 11 9 13 19 15 16 19 18 15 19 14 16 17 19 22 25 26 25 27 25 24 24 23 23 21 19 20 22 23 22 18 16 14 13 13 9 6 6 9 10 10 12 13
26 17 16 20 11 14 14 16 12 13 15 16 20 19 19 20 20 22 23 22 23 25 25 25 25 24 23 23 24 20 16 16 13 10 8 7 7 8 10 11 10 11 12 14
8 6 6 10 11 13 15 13 12 13 13 16 18 23 25 26 23 19 19 23 27 26 23 21 18 16 15 18 19 18 17 12 9 7 3 5 8 8 9 9 9 10 9 9
14 10 9 10 11 9 12 10 8 7 6 7 16 22 25 24 23 23 24 27 30 25 23 23 21 18 18 16 14 11 9 4 2 5 7 8 8 8 9 10 10 10 11 13
13 13 14 11 10 7 6 3 2 5 7 10 16 23 31 35 36 36 34 32 31 29 23 21 23 21 16 11 12 9 6 5 6 6 7 8 8 9 10 11 11 11 11 16
11 10 9 8 6 3 4 5 7 11 13 15 20 25 29 31 32 31 29 26 21 23 21 18 16 16 14 9 6 2 1 4 6 8 9 10 9 10 12 12 12 12 13 15
8 9 9 9 8 8 8 7 9 13 15 17 21 23 25 27 27 25 21 19 21 22 18 14 12 9 6 4 2 3 5 7 8 9 9 11 10 10 12 12 14 16 15 14
16 15 14 15 14 15 16 14 15 18 18 19 23 25 25 22 22 24 24 22 15 12 11 8 7 5 3 1 3 4 6 7 8 10 12 12 10 13 14 11 13 14 14 15
26 24 25 26 26 24 22 20 21 24 23 22 25 27 28 26 21 18 15 16 13 9 7 5 3 2 2 3 6 7 9 11 12 11 11 11 12 12 12 15 15 16 16 16
29 31 32 31 31 30 26 26 26 27 28 27 27 26 24 20 16 14 12 10 10 6 3 4 4 5 6 8 9 9 10 10 12 12 11 12 13 14 15 14 16 17 17 19
35 35 35 35 35 34 31 31 30 29 28 25 22 20 19 16 12 10 10 9 7 4 2 5 6 7 7 8 9 10 10 12 11 11 14 14 14 16 17 15 17 18 17 17
33 33 33 31 30 30 31 27 26 25 24 22 20 17 13 10 10 8 7 5 3 1 6 8 8 10 11 9 9 10 11 11 12 12 13 14 14 15 16 18 19 18 18 20
30 30 30 29 29 27 24 23 22 20 19 18 15 13 11 7 7 6 5 4 5 4 9 12 12 13 10 11 11 12 12 13 14 17 16 13 13 15 17 17 18 20 22 24
26 27 25 25 24 21 18 18 22 19 14 15 14 12 10 9 8 8 8 8 8 7 8 9 14 14 12 12 13 13 13 14 15 15 16 17 18 18 17 18 20 21 22 23
22 20 20 21 20 17 15 16 15 13 15 12 10 9 8 8 7 6 5 6 8 7 8 11 11 12 14 15 16 15 15 14 15 17 19 19 18 18 17 19 20 22 23 21

GFSNGP_850_spd_051.txt.gz
Wind_Speed
8 11 13 16 14 16 15 9 7 7 7 8 12 7 9 7 6 6 20 20 18 21 19 18 15 12 17 22 29 29 27 26 25 21 21 20 23 23 21 20 20 22 22 21
12 11 7 13 11 9 6 10 12 11 15 17 19 20 13 14 21 19 19 17 13 10 24 25 23 20 19 17 20 23 26 27 27 26 27 26 24 23 21 21 22 22 20 19
7 7 4 14 10 15 13 12 9 8 9 7 9 10 17 24 30 30 24 18 20 18 24 28 28 26 25 22 23 25 28 29 30 29 27 23 19 20 19 20 19 18 17 16
4 4 13 7 9 6 16 14 9 3 4 5 8 17 17 7 14 19 25 23 21 21 25 30 28 26 26 26 24 23 25 26 23 21 21 20 18 16 15 15 15 15 15 15
6 11 5 11 3 3 5 7 4 5 6 8 21 6 4 11 12 15 19 20 21 21 28 31 32 31 30 26 24 25 25 24 23 23 23 23 22 19 17 17 16 15 14 13
1 7 14 3 6 12 4 11 8 7 7 7 6 3 5 14 10 15 18 22 24 24 25 27 27 27 25 26 28 27 26 25 23 23 22 21 19 18 17 16 14 12 12 12
3 3 6 5 8 9 8 3 14 20 12 6 4 7 13 18 16 14 16 23 24 24 25 25 26 25 25 25 26 26 24 23 23 22 20 19 18 17 15 16 16 17 17 14
4 3 7 9 6 11 4 22 31 28 18 10 9 13 17 19 17 20 22 24 24 26 26 25 25 26 27 27 27 27 26 25 24 22 21 17 16 19 19 19 18 18 18 16
8 7 7 14 5 16 12 11 5 8 11 0 10 10 18 21 20 23 25 27 27 27 27 26 26 27 29 30 29 28 27 26 24 21 20 19 21 22 23 22 21 19 18 16
4 5 11 25 27 25 22 25 20 13 8 5 6 11 13 20 23 26 27 27 27 27 28 27 26 29 31 31 28 27 27 25 24 22 22 22 23 24 23 21 19 18 17 17
3 5 4 12 20 14 24 26 18 25 17 7 6 18 25 26 25 26 27 28 27 28 29 28 28 29 29 28 27 26 26 25 26 27 28 27 25 22 20 18 16 16 15 15
5 10 11 17 18 17 15 21 22 30 29 21 11 18 26 25 24 29 28 28 26 28 29 28 26 25 24 22 24 27 27 26 25 24 23 22 21 20 16 13 13 13 14 14
4 8 5 1 3 4 8 14 19 19 19 25 21 15 24 26 27 30 29 30 29 30 28 27 26 25 24 25 27 28 29 27 25 23 20 17 14 12 11 9 8 6 7 9
17 10 4 6 2 3 4 7 10 14 15 11 10 13 24 26 26 28 30 32 34 33 32 31 29 26 23 22 25 26 25 23 23 20 16 14 11 9 7 5 6 8 10 11
22 14 6 5 6 6 7 11 12 12 14 11 9 16 25 28 29 29 32 33 35 35 34 32 30 25 20 21 23 21 18 17 17 16 12 8 7 7 8 11 11 10 10 13
14 15 13 13 12 8 9 8 8 7 4 4 9 22 30 34 36 35 33 34 36 33 30 28 26 19 17 16 16 15 13 12 9 11 15 11 7 7 9 11 12 12 12 15
16 21 18 16 13 11 12 10 8 9 8 11 19 26 32 36 36 35 33 30 34 33 27 22 20 17 14 13 13 12 12 15 12 8 6 6 9 10 11 14 13 13 14 16
7 7 9 8 8 9 11 11 9 8 9 12 16 20 25 28 32 32 32 28 24 19 11 9 10 13 14 13 11 8 6 5 4 4 6 7 8 10 12 12 14 15 15 16
10 10 9 9 10 10 12 13 12 13 15 15 18 21 25 28 29 27 21 17 16 16 16 12 12 10 8 6 4 2 0 2 4 5 7 9 10 12 13 13 15 15 16 17
18 18 18 19 18 18 20 19 18 19 20 22 26 28 28 25 21 20 17 21 18 16 12 9 8 6 5 3 2 2 3 4 5 8 10 11 11 12 12 14 13 15 16 16
27 26 28 28 29 28 27 26 27 29 26 24 26 27 27 25 22 19 19 20 17 12 10 8 7 6 5 5 6 6 6 6 7 7 9 10 10 11 12 13 15 17 18 19
31 33 34 34 34 34 32 32 32 32 31 30 28 26 24 22 19 19 17 16 13 10 8 7 7 7 6 5 5 6 8 7 9 10 9 10 12 14 14 15 17 18 19 20
34 35 34 34 35 34 33 32 31 29 28 26 23 22 22 20 16 16 18 11 7 7 7 7 6 5 5 5 7 8 9 10 9 9 11 12 12 13 15 15 14 18 20 21
35 35 34 32 31 31 32 28 26 25 24 22 21 18 15 16 16 14 11 7 4 3 7 9 9 8 6 7 8 9 10 11 12 12 13 15 17 17 16 17 19 19 20 22
29 29 29 29 29 27 25 21 21 21 20 20 18 15 14 13 12 11 8 7 6 7 9 11 13 12 11 10 10 12 13 11 11 13 14 15 17 19 20 19 17 18 21 24
26 26 25 23 22 21 21 18 20 17 15 17 16 13 12 11 11 8 7 7 6 6 6 10 11 11 13 13 13 12 11 12 13 15 17 18 20 21 19 18 21 22 23 25
21 20 20 20 19 17 14 13 14 16 12 10 10 8 6 6 5 4 4 5 5 6 8 9 9 11 13 13 12 13 14 14 15 16 17 19 20 22 21 20 20 22 23 24

GFSNGP_850_spd_054.txt.gz
Wind_Speed
13 17 16 18 11 8 9 7 9 8 11 12 10 10 16 21 17 17 26 24 28 28 26 24 23 21 24 36 47 49 54 46 42 39 40 39 38 37 45 33 29 26 25 25
8 13 9 12 16 15 8 4 8 7 9 8 19 20 10 23 25 24 22 24 30 27 26 26 25 23 20 22 31 43 45 43 39 40 38 35 32 29 33 30 29 27 25 26
15 8 12 12 16 7 6 6 6 6 9 8 9 8 13 24 28 23 24 25 32 30 29 31 33 29 26 24 26 30 36 36 38 37 33 31 32 31 30 28 26 25 25 24
4 3 11 16 12 7 13 11 9 6 6 8 10 20 24 30 31 26 30 29 29 29 30 32 33 30 27 26 27 29 33 37 38 38 36 35 31 26 24 24 24 24 23 22
2 6 4 9 5 7 7 7 7 7 3 6 11 6 5 17 16 31 29 33 31 28 27 30 33 31 30 28 26 27 31 33 35 35 34 29 26 23 23 22 23 23 22 21
6 7 16 3 6 4 3 6 6 5 2 6 4 1 5 17 17 16 16 23 25 26 24 29 33 33 31 29 27 27 27 28 28 27 25 23 21 22 21 21 20 20 20 19
9 5 8 5 6 18 8 6 4 1 5 10 6 10 13 21 21 17 18 19 21 21 24 30 33 32 29 26 24 22 21 23 25 24 22 20 21 20 20 21 21 21 21 20
5 5 7 2 6 4 2 12 11 14 12 16 20 21 12 25 23 20 21 21 21 22 26 29 29 29 27 25 24 23 24 25 24 22 23 22 21 22 22 23 23 23 22 22
6 5 11 6 4 2 7 6 10 14 19 8 13 20 24 29 26 25 25 21 22 23 25 25 25 26 26 26 26 25 24 23 24 23 21 20 20 22 22 22 23 25 24 23
6 14 18 22 11 5 7 5 14 15 16 11 11 11 18 22 25 27 27 25 22 23 25 26 25 25 25 26 25 23 22 22 21 20 21 20 22 24 23 24 24 22 22 22
7 6 6 14 18 10 12 22 19 16 17 18 18 16 16 23 27 28 27 25 25 25 25 26 27 26 25 24 22 21 20 22 23 23 22 23 22 21 21 22 20 19 18 17
6 12 9 13 24 25 19 12 18 14 20 20 24 21 20 19 25 27 27 28 27 26 27 28 27 26 25 24 24 24 25 24 23 23 24 23 23 23 21 18 16 15 14 15
6 15 12 5 2 4 11 11 11 9 12 15 20 21 18 21 25 28 27 27 26 28 29 27 25 26 26 25 24 23 24 26 25 24 24 23 21 18 17 14 14 13 13 15
23 14 7 20 10 8 3 1 1 6 8 8 10 16 16 19 18 21 27 30 30 32 30 28 28 27 23 23 23 25 26 26 25 23 22 19 14 11 9 7 8 10 12 11
18 15 12 8 6 8 9 8 4 5 6 7 5 6 10 15 22 25 26 28 32 32 30 28 29 25 25 27 28 28 27 24 22 20 17 12 9 10 15 16 13 12 11 14
10 11 15 14 12 10 7 8 9 10 8 5 5 10 18 26 31 31 30 31 33 30 28 28 27 25 23 22 25 24 19 16 15 14 13 14 17 15 15 13 11 12 13 13
13 16 19 16 13 13 12 11 11 12 11 10 11 15 20 24 28 29 29 29 30 30 26 23 23 18 14 10 9 9 10 11 10 10 10 9 8 8 8 8 9 11 12 14
6 5 5 4 5 7 10 11 11 10 11 14 17 18 23 24 31 33 32 28 27 25 20 16 13 10 8 7 6 6 6 6 6 6 5 5 6 7 7 9 10 11 12 14
9 10 11 9 11 12 13 14 15 16 16 17 21 25 28 30 28 26 23 22 21 22 21 15 13 11 10 8 6 5 5 3 2 1 3 5 6 6 7 9 11 13 14 15
19 18 17 18 19 20 20 20 20 23 23 24 30 31 30 27 24 23 21 27 25 23 17 13 11 10 10 8 6 5 4 3 3 4 5 6 7 7 8 10 10 10 12 14
26 26 28 30 30 29 28 27 29 30 28 27 29 31 29 27 25 23 24 28 21 17 16 14 11 10 8 7 6 6 5 5 4 5 6 7 7 8 10 11 13 15 16 17
29 32 32 32 33 33 32 32 33 32 31 30 28 27 26 26 23 24 23 22 17 14 12 11 10 8 7 6 6 6 6 7 7 7 8 9 10 11 12 13 14 15 15 16
32 32 31 31 32 31 29 29 29 28 28 26 24 22 22 21 18 18 20 14 11 11 10 10 8 6 6 6 7 7 8 8 9 9 10 11 12 13 14 15 16 18 20 21
30 29 29 27 26 27 28 25 24 24 23 22 21 18 17 17 18 15 13 9 9 9 10 10 9 7 7 8 8 9 10 10 10 10 10 12 12 14 17 20 21 21 20 19
23 22 22 22 24 24 21 19 19 18 18 19 17 16 15 13 12 11 8 7 7 8 9 10 10 10 12 12 12 11 10 10 11 13 14 15 16 18 19 20 20 20 21 22
20 21 20 19 18 16 15 14 17 15 14 16 15 13 11 10 9 7 7 7 7 8 10 11 12 12 13 13 13 13 14 14 14 15 15 15 16 18 19 19 18 19 20 22
17 16 16 16 15 13 11 11 11 13 11 9 9 8 6 5 5 5 5 5 7 9 10 9 10 12 13 13 13 13 13 14 15 15 16 17 18 18 16 16 18 19 20 21

GFSNGP_850_spd_057.txt.gz
Wind_Speed
12 10 13 8 7 8 7 10 12 10 10 12 11 10 15 25 25 18 21 26 30 32 33 31 33 35 36 38 41 45 49 51 55 56 55 47 41 38 37 36 37 39 38 38
6 8 8 14 16 20 14 7 8 6 6 7 15 24 15 26 30 22 24 29 33 35 35 34 32 31 31 30 33 40 44 47 48 51 49 51 40 39 37 38 41 37 34 34
4 12 9 10 12 17 8 6 7 8 9 7 5 9 16 28 29 25 31 30 33 35 38 37 37 35 32 29 29 33 40 44 47 45 44 44 42 38 38 40 36 34 33 28
1 6 4 7 6 12 15 14 8 6 6 7 10 18 22 23 27 31 25 31 32 32 34 42 40 34 32 31 30 30 35 37 41 43 43 44 42 41 40 33 29 31 31 28
3 4 8 18 6 4 8 19 13 11 9 7 10 5 15 19 19 22 23 33 33 30 31 38 36 33 33 32 31 30 31 33 34 37 40 39 35 34 30 31 31 28 25 27
3 3 6 5 10 20 6 14 6 9 9 7 10 3 6 22 24 25 23 23 27 27 30 30 32 31 32 33 33 32 32 32 32 33 31 29 28 27 29 25 25 28 26 25
3 3 7 7 10 19 5 13 5 6 6 8 6 16 33 24 27 27 21 16 14 18 23 23 23 26 31 32 33 32 30 25 23 22 22 23 26 27 27 26 24 25 25 24
4 4 8 7 9 4 15 13 8 8 12 11 13 21 28 29 25 22 18 14 12 13 15 17 21 25 29 30 29 25 22 21 21 24 27 27 27 26 23 23 25 26 25 24
7 6 7 4 3 12 32 38 12 8 11 17 17 17 18 26 29 25 24 21 19 19 19 21 24 26 28 26 24 22 22 23 24 24 23 21 22 23 24 23 24 24 23 23
2 7 15 23 30 31 41 39 16 9 15 14 16 21 22 18 15 19 21 23 22 21 21 21 23 23 22 21 21 21 21 21 21 21 21 20 20 20 21 22 22 21 22 23
7 7 16 26 31 38 35 32 29 16 11 19 15 18 24 28 20 18 21 23 21 20 21 21 22 22 21 20 19 20 20 20 21 21 21 22 20 19 19 19 18 17 18 18
3 12 14 15 17 14 14 18 10 11 9 11 13 18 16 21 19 16 19 21 21 20 21 21 20 19 19 20 19 19 20 21 22 22 22 20 21 21 19 16 18 17 16 16
6 16 31 23 10 15 12 9 5 1 5 7 6 11 17 25 19 17 11 16 17 20 21 20 20 20 19 19 20 20 19 22 22 22 22 22 21 22 24 20 17 15 13 12
13 14 8 12 11 14 10 9 7 8 9 10 10 8 14 13 14 20 20 15 19 21 21 20 20 19 19 19 19 22 24 26 26 25 22 21 20 17 14 10 8 7 11 14
10 10 8 6 9 12 12 9 8 10 11 9 9 6 2 10 13 14 16 20 23 23 21 20 21 20 19 21 24 22 21 21 20 21 19 17 15 13 11 11 12 12 11 12
15 9 10 10 10 12 12 11 14 15 13 11 9 8 6 9 13 15 15 16 19 21 19 18 18 15 14 17 18 16 14 15 13 12 12 10 9 9 9 9 9 10 10 10
14 6 9 9 8 8 10 12 13 12 11 12 12 11 11 14 19 21 23 26 29 29 27 25 25 19 15 12 11 13 11 11 8 8 7 6 6 6 6 6 6 6 7 8
1 3 4 1 4 5 9 11 11 12 14 14 14 16 20 24 32 32 31 29 29 29 25 20 16 14 13 11 10 9 8 8 7 6 5 4 3 2 3 3 4 6 8 9
7 7 6 7 8 9 12 14 17 16 16 19 24 30 31 31 30 29 26 25 26 27 24 18 15 15 15 12 10 9 8 7 6 4 3 2 2 2 3 4 5 7 8 9
17 18 17 19 18 20 23 21 23 26 26 27 29 29 29 27 25 24 24 30 27 24 18 16 14 15 14 11 9 8 7 6 5 4 4 4 4 4 5 5 5 7 9 11
23 23 25 27 28 30 29 27 28 29 27 28 28 29 29 27 25 24 26 29 22 17 15 14 13 13 12 10 9 8 7 6 6 6 5 6 6 7 7 8 9 10 12 13
26 28 29 30 32 33 30 29 29 29 29 30 28 26 25 26 24 25 25 23 17 13 12 12 12 11 10 9 9 8 8 8 7 7 7 7 8 8 9 10 12 13 14 15
28 28 29 29 29 29 27 26 26 25 26 24 22 20 21 20 18 18 21 17 13 12 11 11 10 9 9 9 9 10 9 9 9 9 9 9 9 9 10 12 14 16 16 15
25 25 24 23 23 24 26 23 22 22 22 21 20 18 16 15 17 16 15 12 11 11 11 11 10 10 11 11 11 10 10 9 9 9 10 10 11 12 13 13 14 14 15 16
18 18 18 18 20 20 18 16 17 17 16 17 17 15 14 13 12 11 9 9 9 10 10 10 10 11 12 12 12 11 11 11 10 11 11 11 12 13 14 14 15 15 16 18
15 15 15 15 15 13 12 11 14 14 12 13 13 12 10 10 9 7 7 8 9 10 11 11 11 12 12 12 12 11 11 11 12 12 12 12 13 14 14 15 16 18 19 20
12 12 12 12 11 10 9 9 8 10 9 9 8 8 7 6 6 6 6 8 9 10 10 11 10 11 11 11 11 10 10 10 11 12 13 14 15 16 17 18 19 20 21 22

GFSNGP_850_spd_060.txt.gz
Wind_Speed
4 4 6 12 9 6 9 6 8 5 8 9 12 11 16 24 21 22 21 19 20 23 25 26 28 29 30 31 30 34 39 46 50 52 48 49 52 53 49 45 41 40 49 54
3 10 12 6 9 10 8 5 6 7 8 10 16 18 14 28 29 28 26 22 24 28 29 30 30 30 30 30 33 32 32 34 36 42 47 54 55 53 50 47 44 42 45 46
1 5 11 4 3 6 9 10 7 12 8 9 6 8 14 25 27 28 34 33 27 29 30 33 36 34 33 32 34 33 31 32 34 36 37 39 44 50 51 48 47 43 40 37
2 3 2 5 11 7 7 11 7 6 5 7 10 22 18 17 16 22 24 28 35 35 34 34 38 39 37 38 34 33 33 32 32 33 35 35 35 38 40 40 42 38 33 32
3 3 4 9 2 4 3 9 6 8 12 12 26 10 10 9 2 7 15 22 24 28 32 29 33 38 43 38 35 34 34 32 30 31 32 32 33 35 35 32 32 30 30 28
2 3 4 4 3 9 5 11 10 15 12 13 6 4 6 20 19 10 13 22 22 22 27 31 30 31 40 38 35 32 31 29 28 28 28 29 29 31 30 30 29 28 26 27
4 5 6 5 5 4 0 7 12 19 24 17 5 8 21 25 23 21 22 22 23 23 24 25 26 25 28 34 31 30 28 26 25 22 20 18 18 20 22 23 25 25 25 23
3 1 9 6 2 3 4 9 12 23 23 24 31 28 26 25 23 23 23 21 17 9 11 13 15 17 20 22 23 22 21 19 16 14 13 13 16 20 23 27 28 25 23 23
7 7 4 5 7 15 10 7 15 17 34 27 29 26 26 29 32 22 22 21 20 14 14 12 11 11 11 14 16 16 14 14 15 14 15 17 19 23 25 23 20 20 21 21
1 3 5 13 16 20 21 29 29 21 25 27 36 31 20 23 26 28 18 12 10 11 9 8 8 10 12 12 13 13 13 14 15 16 15 15 16 16 16 17 17 16 17 17
5 4 12 0 21 22 27 25 23 30 32 27 28 27 25 20 21 17 22 16 10 4 7 3 11 12 8 9 11 13 14 15 16 16 17 16 14 11 9 9 8 9 12 13
4 2 4 8 17 14 20 23 18 13 8 6 11 17 17 15 11 14 16 19 15 8 7 4 9 10 10 11 12 13 15 16 16 16 16 16 16 16 15 14 14 15 16 19
6 16 21 20 8 12 15 19 15 14 10 8 7 11 7 5 4 3 8 12 16 13 5 4 5 7 9 10 12 15 16 16 18 18 19 20 20 19 22 20 15 11 10 11
8 14 5 9 9 16 14 16 13 9 9 11 7 5 7 6 5 6 4 3 4 2 3 4 7 10 10 12 15 17 19 21 21 23 23 22 19 16 12 11 13 13 11 10
9 8 9 13 12 10 8 6 7 12 14 13 13 11 11 10 10 11 9 6 4 8 11 9 8 8 7 10 13 16 18 18 16 16 15 14 12 10 8 6 5 5 6 5
18 15 7 7 10 9 8 10 10 14 13 11 14 17 16 14 16 15 14 12 9 18 17 15 15 14 11 11 13 16 17 17 16 16 14 12 10 8 6 5 5 5 4 3
14 8 13 8 8 9 10 9 8 12 10 12 15 17 17 19 24 27 28 26 27 28 25 23 24 19 17 17 16 19 17 16 13 12 11 9 7 6 5 4 4 4 3 3
6 8 8 7 5 5 8 9 10 12 13 14 14 19 23 25 31 31 31 29 27 27 26 22 19 18 17 16 14 13 13 12 10 10 9 7 6 5 4 3 2 1 1 3
5 5 5 5 6 8 12 14 16 16 16 20 23 27 29 28 28 28 26 26 27 28 25 19 17 17 18 16 13 13 12 11 10 9 8 7 6 5 4 3 2 2 3 5
12 12 12 14 15 16 19 19 21 25 25 26 28 28 28 27 24 24 24 30 27 24 18 17 17 18 17 15 13 12 11 10 9 8 7 6 6 5 5 4 4 4 6 8
19 20 22 24 25 25 25 24 24 25 23 24 26 27 27 25 23 22 25 28 21 16 16 14 15 15 14 12 11 10 9 8 7 7 6 7 6 5 5 6 6 7 8 10
22 24 25 26 27 28 26 25 25 25 25 25 25 25 24 24 22 23 23 22 16 12 12 13 13 12 11 10 10 9 8 7 7 7 7 7 7 7 7 7 8 9 11 11
24 24 25 26 26 26 24 23 23 22 22 20 19 18 18 18 17 16 19 16 13 12 12 12 11 11 10 10 10 9 9 8 8 8 8 8 8 9 9 10 11 11 12 13
21 22 22 21 20 21 23 20 19 18 18 17 16 15 14 13 15 15 14 12 11 10 10 11 11 11 11 11 10 10 10 9 9 9 9 9 9 10 11 11 12 13 13 14
16 16 15 15 17 18 16 14 14 14 12 13 13 12 11 11 10 10 9 9 9 9 10 10 11 11 11 11 10 10 10 10 11 11 11 11 12 13 13 14 15 15 16 17
12 12 13 12 13 12 11 9 11 12 9 9 10 10 9 9 8 7 8 9 10 10 11 12 12 12 12 12 11 11 12 12 12 12 13 14 14 14 14 15 15 17 18 19
10 10 10 10 10 9 7 7 6 7 7 7 7 8 6 6 6 7 9 10 11 12 12 12 12 12 12 12 12 12 11 11 12 13 13 14 14 15 16 17 18 19 19 20

GFSNGP_850_spd_063.txt.gz
Wind_Speed
5 4 3 3 8 9 9 11 10 9 9 10 7 9 16 17 26 22 18 17 16 18 17 22 23 23 21 23 25 29 36 41 44 45 45 43 43 45 47 45 45 43 43 44
2 4 2 6 8 6 6 4 7 10 10 9 16 13 14 23 25 25 32 31 28 21 21 21 24 26 25 28 28 29 30 31 33 37 39 43 45 46 47 48 46 45 45 45
2 4 5 1 2 1 1 1 3 4 10 13 12 10 12 22 23 26 25 26 26 24 24 24 23 26 30 31 34 33 31 31 32 31 32 32 33 37 43 46 46 46 44 43
1 4 2 2 1 4 3 1 4 2 9 12 15 22 22 21 20 27 27 25 23 19 22 28 31 29 33 34 35 36 36 33 33 31 30 29 29 29 30 34 36 36 36 35
2 5 4 8 2 3 3 3 9 7 10 12 24 11 11 22 21 24 25 16 15 16 18 22 28 31 32 32 36 37 36 35 32 29 27 27 27 27 28 27 28 28 30 31
3 3 6 4 2 3 6 2 3 7 9 11 18 7 6 29 25 24 23 23 33 23 17 17 19 23 27 29 32 38 35 34 29 26 26 25 23 20 19 23 25 26 25 27
2 4 4 5 4 5 3 3 12 5 9 9 7 7 22 25 29 29 22 20 19 19 23 15 16 19 23 26 27 30 30 25 23 22 21 20 16 16 17 18 23 24 24 25
4 4 5 2 2 3 7 10 12 16 14 17 24 23 23 23 24 27 35 27 16 13 16 17 8 11 10 13 17 19 20 19 18 17 15 12 12 11 14 16 20 21 23 23
6 4 1 2 2 5 8 10 11 18 30 26 29 31 30 28 24 27 28 25 18 12 10 9 7 5 7 9 11 12 13 13 14 14 12 11 10 11 16 18 21 23 24 25
0 0 3 2 4 12 16 15 19 20 25 26 27 28 27 20 16 16 17 24 26 16 9 4 3 3 2 3 5 7 9 12 11 8 9 9 9 10 13 16 17 18 17 18
3 4 7 8 11 16 17 20 21 20 19 16 16 13 13 11 8 5 5 12 15 21 16 10 7 4 9 6 5 6 7 7 6 8 9 10 11 12 12 13 11 11 13 13
2 5 5 9 16 16 13 16 18 20 19 17 15 12 6 6 3 2 6 4 8 13 15 15 8 5 5 6 7 7 5 9 10 11 11 12 15 17 17 13 12 12 13 15
4 12 14 15 10 11 16 15 15 15 16 16 14 10 4 6 5 3 6 5 6 8 8 7 7 10 4 2 2 4 11 13 14 14 16 16 18 19 19 15 14 11 10 11
6 10 4 7 8 17 15 12 11 11 11 12 12 9 6 8 8 8 7 8 8 8 7 8 7 7 3 7 4 9 12 17 17 17 16 16 16 18 18 19 20 19 15 10
11 9 12 11 12 13 13 11 8 8 9 8 8 8 9 14 14 13 12 12 13 12 14 11 10 11 6 4 4 6 11 13 14 17 18 20 19 18 18 17 15 13 10 7
15 12 4 5 8 12 13 10 8 8 8 9 9 8 17 17 18 19 19 20 19 26 24 22 24 22 17 15 16 18 20 20 20 21 19 17 16 13 12 12 11 9 7 5
10 6 11 9 9 9 8 7 6 6 6 11 13 15 21 23 25 27 27 27 28 30 28 27 26 23 22 21 21 22 21 19 17 16 14 14 12 11 9 9 8 7 6 3
4 6 5 4 2 4 6 7 7 9 12 16 19 22 25 27 30 30 29 27 28 29 28 24 22 21 20 19 18 17 16 15 14 14 12 12 11 9 9 8 7 5 4 2
5 4 5 5 6 7 10 13 14 15 18 22 24 28 29 28 28 28 26 27 29 30 26 21 20 20 20 19 16 15 14 13 13 12 11 10 10 9 8 7 5 4 2 1
11 11 11 13 14 15 18 18 19 22 23 24 26 27 28 27 25 25 25 31 28 24 19 19 19 19 18 15 13 14 12 11 11 11 9 8 8 7 6 5 3 3 3 4
16 17 19 21 23 22 22 21 22 24 23 23 24 25 25 23 22 22 24 26 21 16 15 14 16 16 14 12 11 11 10 10 9 9 8 8 7 6 5 5 5 5 5 6
18 20 21 22 23 24 23 23 23 23 23 23 23 22 22 22 20 21 22 21 17 14 13 14 14 13 12 10 10 10 9 9 9 9 8 8 8 7 7 7 7 6 6 6
20 20 21 22 22 22 21 20 20 19 19 18 17 16 17 17 17 15 17 16 13 13 12 13 13 12 12 11 11 11 11 11 11 10 9 9 9 8 8 8 7 7 7 8
18 18 19 18 18 18 19 17 15 15 15 15 14 14 13 13 14 15 14 12 12 12 12 13 12 12 12 12 12 11 10 10 10 9 8 8 8 8 8 8 8 8 9 10
14 14 13 12 13 14 12 11 11 11 10 11 11 11 11 11 11 12 10 11 11 10 10 10 10 10 10 10 10 10 9 9 9 8 8 9 9 9 8 9 9 10 12 13
9 9 9 9 11 10 9 8 8 9 8 7 9 9 9 9 9 8 9 9 9 10 10 10 10 10 9 9 8 8 9 9 9 9 9 9 10 10 11 12 12 13 13 14
8 9 8 8 8 7 6 6 5 6 7 6 6 8 7 7 8 8 10 10 10 11 11 11 10 9 9 9 9 9 10 10 10 10 10 10 11 11 12 13 13 13 13 13

GFSNGP_850_spd_069.txt.gz
Wind_Speed
15 8 5 8 10 14 16 15 13 13 15 14 6 5 6 7 12 14 13 7 9 10 12 16 20 25 28 29 30 31 33 34 39 41 39 35 39 41 43 44 47 45 46 48
13 10 5 8 10 11 13 10 10 13 11 7 7 6 6 12 14 12 15 12 11 15 13 17 18 21 24 28 33 31 36 42 37 37 38 40 41 42 42 44 46 48 48 47
2 1 4 8 12 8 10 14 13 11 5 2 2 7 7 10 12 17 16 14 15 14 13 11 12 14 21 25 25 33 38 36 37 39 40 42 41 41 43 45 44 48 49 48
4 6 5 5 2 16 11 3 4 10 4 5 6 6 8 11 13 13 15 17 15 14 13 12 12 10 14 18 23 28 32 34 36 38 41 40 39 42 42 42 44 45 45 45
2 3 6 9 3 4 13 8 6 4 4 7 9 7 11 12 15 15 16 18 18 17 15 14 13 12 11 12 19 24 29 35 34 37 38 39 41 43 42 41 41 41 39 38
6 3 4 4 12 7 9 5 7 6 6 9 13 6 6 21 16 17 18 19 21 20 15 14 14 15 15 12 13 19 25 28 27 31 34 35 37 37 37 35 34 32 34 34
9 5 4 10 3 1 10 4 7 8 11 12 10 12 20 21 17 15 14 15 17 18 17 18 20 15 13 9 7 10 17 21 22 25 28 30 29 29 29 32 36 35 35 34
10 9 11 5 3 4 6 8 9 10 11 12 13 17 20 19 16 15 13 13 14 15 17 21 21 16 10 12 11 12 16 20 23 22 26 28 30 34 34 34 33 33 32 29
9 7 8 13 17 11 9 9 11 12 13 14 16 18 19 20 15 13 13 13 14 12 12 15 17 18 18 17 13 7 7 10 17 21 23 26 29 30 27 27 27 29 29 24
4 9 7 12 13 12 11 11 12 12 12 14 15 15 15 14 14 13 13 14 13 12 12 11 12 13 15 17 17 11 6 4 7 12 18 21 21 21 23 25 22 21 20 18
4 7 9 12 13 11 11 12 13 13 12 12 12 13 15 13 14 14 13 13 14 14 13 13 12 11 14 18 22 20 12 5 1 5 7 9 11 10 10 13 14 15 15 15
2 8 8 9 10 11 13 14 13 12 12 12 14 14 14 12 13 13 13 13 12 12 12 12 10 10 10 11 12 17 19 18 14 3 8 9 9 9 8 6 6 6 11 14
6 9 7 7 7 11 11 12 11 11 11 12 12 12 11 10 12 12 12 12 12 11 11 11 10 9 11 12 9 6 5 5 2 3 3 7 17 20 24 22 19 19 18 19
11 12 7 9 6 9 9 9 8 8 9 10 10 10 10 8 9 10 12 12 11 10 11 12 12 13 13 12 9 7 7 6 5 8 9 13 15 19 24 28 30 31 27 24
12 10 5 5 5 8 8 8 6 8 8 9 10 9 8 8 9 10 10 12 13 15 16 17 20 22 18 15 13 14 15 17 18 19 20 21 20 21 22 24 26 25 21 19
12 7 4 7 7 8 8 8 6 7 8 8 9 10 10 11 15 17 18 18 21 24 22 23 25 25 23 22 21 22 23 24 23 24 25 23 22 22 20 20 21 20 18 14
10 9 10 8 7 6 6 6 5 5 5 7 9 11 12 13 17 20 22 21 21 21 21 22 20 17 17 17 18 19 18 18 18 18 19 17 17 17 15 15 14 13 13 11
6 5 5 5 4 3 5 6 7 7 9 9 12 13 15 16 18 20 19 18 17 18 19 19 16 15 15 15 15 14 14 15 14 15 14 14 15 14 14 14 14 11 10 9
8 7 7 7 7 7 8 9 10 11 12 13 15 17 17 17 16 15 14 15 16 17 16 15 13 13 13 13 13 12 12 13 13 13 12 12 12 12 12 11 10 8 8 7
9 10 10 11 12 12 13 13 13 15 14 15 16 17 17 17 15 14 13 16 17 15 12 11 12 13 13 12 13 12 13 13 12 12 12 12 11 11 11 10 9 8 8 8
11 12 14 15 16 16 15 15 15 15 14 13 14 15 14 12 11 11 12 13 12 10 9 9 10 12 11 12 12 12 12 12 12 11 10 10 10 10 9 9 8 8 7 6
12 13 15 15 16 17 15 15 15 15 15 15 14 13 13 13 12 11 11 11 10 10 10 10 10 11 11 12 12 12 12 12 11 10 10 10 9 8 8 8 7 7 6 5
13 13 14 15 15 15 14 13 12 11 10 9 9 10 10 9 7 6 8 9 9 9 8 9 9 9 9 11 11 11 11 10 10 9 9 8 7 7 6 5 5 4 4 4
11 11 12 12 11 11 12 10 9 9 8 8 6 8 7 5 8 8 7 8 8 8 9 9 9 9 9 10 10 9 9 9 8 8 7 7 6 5 5 4 4 4 6 7
9 9 8 8 7 7 7 7 7 7 7 7 8 8 7 6 5 5 5 6 7 7 7 7 7 9 9 9 8 8 8 7 6 5 5 5 5 5 5 6 7 9 9 9
6 5 5 6 5 4 3 3 2 2 3 3 4 5 5 6 5 5 7 7 7 7 6 7 7 7 7 8 8 8 7 7 6 7 7 6 7 7 9 9 10 10 10 10
5 5 4 4 4 3 3 3 2 1 2 2 2 3 3 4 5 5 5 5 6 6 7 7 7 8 8 7 8 8 8 8 9 9 9 9 9 10 10 11 11 11 11 11

GFSNGP_850_spd_072.txt.gz
Wind_Speed
13 16 16 14 16 21 22 19 15 11 16 12 15 14 6 14 11 9 14 22 13 11 1 15 19 23 27 29 31 32 33 35 38 38 37 36 36 40 41 43 46 46 44 46
10 15 15 16 12 14 11 15 15 11 6 8 6 10 16 21 22 20 20 22 19 18 19 18 7 21 25 29 30 32 35 38 35 36 37 41 41 41 42 45 46 47 49 51
4 13 7 9 12 10 10 10 8 9 4 7 4 6 16 19 18 18 18 18 18 20 17 19 19 16 14 21 27 31 35 36 37 37 38 40 41 42 46 48 47 50 52 51
4 10 4 9 12 12 4 8 8 7 4 6 5 18 19 17 16 15 14 16 16 19 19 15 14 11 12 7 9 27 30 34 35 35 38 37 37 42 44 44 46 48 50 50
3 4 6 4 2 9 12 5 5 3 10 4 7 18 17 20 13 11 13 13 15 14 12 12 13 13 13 14 14 12 13 25 31 32 35 36 39 42 42 41 41 43 43 41
4 4 1 3 6 17 9 3 6 6 14 15 14 7 9 21 16 11 11 13 16 11 13 16 19 14 9 7 7 9 11 12 7 28 33 35 37 39 39 39 41 37 37 40
7 4 5 6 14 21 2 3 6 12 17 16 10 11 16 17 17 18 18 16 18 17 16 16 16 13 12 13 13 15 14 15 14 12 18 31 33 34 34 36 37 40 40 40
9 7 6 4 8 2 8 10 9 17 18 16 15 16 17 16 19 19 21 21 20 17 19 19 18 16 17 18 18 19 18 16 18 18 15 17 19 26 31 34 38 38 38 39
8 6 13 22 20 18 19 17 16 14 14 13 13 14 16 17 18 18 18 19 17 16 15 17 19 18 16 17 20 21 18 15 15 14 15 14 9 15 18 23 27 32 35 35
3 11 15 21 21 20 18 16 13 12 12 13 13 15 16 16 16 16 17 17 17 16 16 17 16 15 14 13 15 18 23 24 27 23 14 8 8 6 10 16 20 22 22 24
8 10 18 19 21 15 15 14 13 12 13 16 15 15 14 13 15 14 14 14 14 14 14 15 15 14 15 14 12 11 11 13 18 21 20 16 11 10 11 7 9 12 10 8
4 11 13 17 17 13 13 13 13 12 13 13 13 12 12 11 12 12 12 12 12 13 13 14 14 13 13 12 11 10 10 11 11 10 11 12 12 10 15 21 13 13 15 12
9 10 17 14 17 14 13 11 11 11 11 11 12 10 10 7 9 10 12 12 13 14 14 15 16 15 14 12 11 8 7 9 10 9 12 15 16 16 22 25 25 33 31 31
18 9 13 17 10 12 11 10 9 10 10 10 10 10 9 8 9 11 14 14 13 13 15 16 18 21 18 15 12 12 12 12 13 15 16 18 21 24 25 24 28 30 26 28
17 11 9 8 11 13 11 10 10 11 10 11 11 11 10 12 14 16 15 16 17 18 20 20 23 23 20 18 17 17 19 21 20 19 20 21 21 22 24 25 25 24 20 20
11 12 11 11 10 11 12 12 10 10 10 11 11 13 14 15 16 16 16 15 16 22 22 21 21 20 18 18 19 20 20 22 20 20 20 21 19 19 19 18 19 17 15 14
12 12 12 10 12 9 11 11 10 9 9 10 11 12 13 15 16 17 18 18 18 19 19 19 20 16 16 16 16 16 17 17 17 17 18 16 15 14 14 14 15 15 16 12
10 10 9 8 8 9 10 9 8 8 9 9 10 11 12 13 15 15 15 14 14 15 18 18 17 15 15 16 14 14 15 14 14 15 15 16 16 14 14 14 13 12 11 9
11 11 11 11 10 10 10 11 11 12 12 12 13 16 16 15 14 13 10 10 13 14 17 15 14 13 14 13 12 13 12 11 12 13 12 11 12 12 12 11 10 8 7 6
12 11 10 11 12 12 14 13 12 13 12 12 12 13 14 14 12 11 11 13 15 14 11 10 9 10 11 10 9 9 9 10 11 11 10 10 9 9 9 9 8 8 9 9
13 13 15 16 16 15 15 13 13 14 14 14 14 14 13 11 9 8 10 11 11 10 10 10 10 11 11 11 10 10 10 11 11 11 11 10 9 8 8 8 7 6 5 5
12 13 14 14 14 15 13 13 13 13 12 11 12 12 11 12 12 10 9 9 9 9 9 10 10 10 10 11 11 10 9 9 9 8 7 6 6 5 5 5 3 3 2 3
12 12 13 13 13 13 11 10 9 8 7 7 8 10 11 8 5 4 7 9 9 9 9 10 10 10 11 10 9 10 11 12 11 9 8 7 5 4 3 2 2 4 5 2
11 11 11 11 11 10 9 9 8 8 9 7 4 5 6 5 7 7 7 8 7 8 8 8 8 9 9 9 10 11 9 7 7 6 6 5 5 4 5 7 4 6 6 6
9 10 10 9 8 6 7 7 8 7 6 6 6 7 7 3 2 4 5 6 6 5 8 8 8 10 9 9 9 7 8 9 8 6 5 6 6 6 8 8 8 9 8 9
5 4 4 5 5 4 2 1 2 2 2 4 5 4 3 2 3 4 9 9 9 7 7 9 9 7 7 7 8 9 7 9 9 9 7 7 9 7 11 12 10 10 11 12
5 4 3 4 5 3 3 3 2 1 3 2 2 1 3 5 6 5 5 4 5 6 6 7 10 13 12 8 8 8 8 8 11 11 10 10 11 11 13 13 13 13 13 13

GFSNGP_850_spd_075.txt.gz
Wind_Speed
11 14 11 12 14 15 22 17 5 6 7 6 7 18 12 19 25 28 29 31 31 28 27 2 23 28 27 25 25 24 25 31 33 32 30 29 31 37 42 45 46 47 47 48
8 9 7 15 17 15 17 20 17 18 18 2 6 6 9 19 24 25 25 25 28 27 23 24 19 8 4 22 30 27 28 28 30 34 34 34 32 33 35 40 45 46 48 48
3 7 12 8 7 12 10 9 14 10 7 5 7 7 11 17 23 22 23 21 21 22 22 20 18 17 14 8 3 28 33 31 31 31 34 36 36 36 37 38 39 43 46 47
4 6 4 4 3 3 8 5 5 5 2 9 16 18 23 22 20 20 22 21 19 20 20 22 17 12 10 7 4 3 17 26 28 32 37 37 37 39 41 41 41 42 44 46
2 5 9 4 6 3 6 8 12 13 6 11 14 19 24 33 27 29 26 21 19 18 19 17 17 18 16 11 8 7 6 1 8 14 31 38 39 39 40 42 44 45 46 48
2 4 3 4 7 5 3 4 8 15 7 7 17 10 6 25 29 32 31 21 18 15 14 14 17 17 16 17 16 15 14 16 12 10 9 19 36 39 42 45 44 44 44 45
4 2 7 4 7 3 4 4 10 16 14 17 15 11 17 25 26 20 21 22 15 15 18 16 15 15 18 18 19 19 18 20 20 15 15 10 14 28 33 36 40 41 41 41
3 4 6 15 8 3 10 15 20 20 20 20 20 20 20 19 17 15 16 15 14 15 16 15 15 15 16 16 17 16 15 16 19 20 18 17 15 11 18 18 26 31 35 39
6 3 12 22 21 23 23 23 22 23 20 18 19 19 14 15 15 15 15 15 14 14 14 14 14 14 12 13 13 14 14 15 17 20 21 19 18 15 12 12 9 9 13 15
5 10 15 25 27 28 25 24 22 20 19 19 19 14 13 14 15 16 17 16 15 14 15 15 15 14 13 13 11 11 12 13 14 15 16 17 16 14 14 14 11 6 5 4
4 2 21 25 26 23 21 20 19 14 14 16 14 14 10 12 13 13 13 13 15 15 15 16 14 13 13 12 12 11 13 12 12 13 15 16 17 18 18 15 11 9 5 7
2 14 17 12 20 17 19 17 12 13 13 14 11 11 8 11 11 12 13 13 14 14 15 18 16 14 13 12 10 8 7 8 9 10 12 15 19 21 24 23 21 20 18 13
7 24 25 16 16 15 13 12 11 12 12 11 11 10 10 12 12 13 15 15 15 15 15 15 16 16 16 14 12 11 11 10 10 10 12 16 20 23 26 28 29 31 30 27
17 8 18 15 10 11 9 8 8 11 12 12 11 10 11 13 13 15 17 16 15 15 15 16 18 20 18 15 14 16 16 14 14 15 16 17 20 22 23 25 26 26 24 22
19 19 15 15 13 12 13 10 11 13 13 15 13 14 14 15 15 15 14 15 15 16 17 17 18 19 17 15 16 17 17 18 17 17 17 18 19 21 21 23 23 21 18 16
11 11 14 14 14 13 10 12 14 14 12 14 14 14 14 15 15 15 14 13 13 18 18 17 17 16 13 13 14 15 16 16 16 16 16 15 16 16 17 17 16 16 16 15
11 13 11 12 12 12 13 12 10 9 9 12 14 13 11 12 15 16 15 15 14 15 16 16 16 12 12 11 11 12 12 11 11 12 13 13 12 12 12 12 12 13 13 11
11 9 11 10 11 10 12 11 9 9 11 11 11 9 11 13 15 14 13 12 12 12 14 15 13 12 12 11 10 10 9 9 10 11 10 11 11 9 9 9 9 9 9 8
8 9 9 9 8 10 13 13 14 14 14 14 15 16 15 14 11 10 8 8 9 10 13 11 10 8 8 7 8 8 8 8 9 9 9 9 9 8 8 7 7 6 6 5
11 11 12 13 13 13 15 13 13 14 13 12 13 13 13 12 10 9 8 10 11 11 8 7 6 7 9 7 6 6 6 7 8 9 7 7 7 7 7 6 6 6 7 7
13 14 15 15 16 15 15 13 13 15 15 13 12 12 11 10 7 7 7 8 9 8 7 6 6 8 9 8 7 7 7 7 8 7 7 7 6 6 6 5 4 3 3 2
11 13 14 14 14 15 13 12 11 10 9 8 7 7 7 6 6 7 7 8 8 8 7 7 7 8 8 8 8 8 8 7 6 5 4 4 3 3 2 1 2 2 3 4
11 12 13 12 12 12 10 8 7 5 4 5 4 5 5 5 4 5 5 7 8 9 7 6 7 7 7 7 7 7 8 7 7 6 5 4 3 2 1 4 5 6 5 7
10 11 11 10 9 9 8 8 8 8 8 7 3 3 2 6 8 7 7 6 6 8 7 6 6 7 7 6 7 7 6 4 5 4 4 4 4 5 7 8 8 7 8 9
10 8 5 5 6 8 9 7 5 6 8 9 9 8 4 4 2 6 8 5 4 6 7 7 8 9 9 7 5 5 7 7 7 6 6 6 7 9 10 10 10 10 11 11
4 1 3 5 4 4 4 3 3 2 3 4 6 8 8 8 6 6 7 8 8 7 9 9 9 9 9 8 9 8 8 9 9 7 7 9 10 11 12 12 11 11 12 12
3 2 1 1 3 3 5 5 4 4 4 7 7 8 8 6 5 5 5 6 7 9 7 9 11 11 12 11 11 12 10 11 12 11 11 11 11 12 13 12 11 12 12 12

GFSNGP_850_spd_078.txt.gz
Wind_Speed
7 12 14 15 16 14 10 12 7 7 5 4 4 10 11 14 24 33 33 36 33 25 19 14 9 7 13 18 22 24 24 24 25 24 25 26 28 31 36 41 42 43 44 45
5 7 7 14 16 17 17 19 14 20 7 3 7 3 13 8 22 30 28 31 29 28 28 25 17 10 5 6 15 23 28 28 27 27 28 29 30 30 31 33 36 42 44 45
4 7 12 11 10 14 13 15 18 17 13 2 9 8 11 13 22 28 27 29 31 29 25 20 19 15 13 8 2 11 21 26 23 23 27 31 30 31 34 35 35 36 39 41
4 6 4 2 11 4 6 9 13 5 10 15 15 20 24 22 25 26 25 28 29 26 23 21 18 16 12 9 11 10 6 15 20 23 22 25 30 34 36 36 37 36 37 37
2 2 10 4 5 4 3 6 6 14 19 18 13 29 24 28 27 26 26 27 26 23 20 18 19 18 15 12 10 9 11 6 2 8 15 23 27 29 31 35 40 42 41 40
2 3 4 1 10 7 2 3 9 12 11 1 10 9 8 19 23 23 22 21 21 19 17 17 20 18 16 16 13 13 13 12 7 3 3 6 10 20 29 33 34 34 35 39
6 4 7 8 3 7 0 5 15 19 20 20 11 9 13 15 21 19 17 17 17 16 17 19 17 16 16 16 20 19 16 15 12 10 9 8 8 10 13 19 26 30 35 37
3 5 8 5 6 1 8 17 20 18 17 23 22 18 16 16 17 19 19 16 16 14 15 15 14 14 16 18 17 15 15 15 17 17 16 11 9 7 8 12 12 14 19 24
6 3 11 20 20 22 21 19 18 18 15 20 17 17 15 16 16 17 17 16 15 15 14 14 13 13 13 15 15 16 14 14 14 14 14 14 11 8 4 2 4 7 9 11
5 7 14 21 21 25 24 24 21 20 18 16 17 14 15 13 14 14 14 16 15 15 16 15 14 13 12 11 12 13 15 15 15 15 15 14 13 13 12 11 9 7 6 5
5 4 6 21 21 19 25 18 18 16 15 14 11 14 13 13 13 14 15 15 15 15 16 17 15 12 10 9 8 9 10 10 11 13 16 18 18 19 18 16 13 13 13 13
3 8 11 11 17 14 21 15 16 13 14 13 11 12 11 14 13 14 14 14 15 15 14 14 13 13 12 10 9 7 6 7 8 9 11 15 18 20 19 20 19 19 21 20
6 20 18 17 20 13 11 12 12 13 12 11 11 10 11 13 13 14 14 15 15 15 13 14 15 15 16 14 12 10 9 9 10 10 12 14 16 19 22 22 23 24 22 21
14 6 15 14 11 12 12 11 11 13 12 12 11 11 11 12 12 15 17 16 15 14 15 15 16 17 16 15 13 15 14 12 12 12 13 14 15 17 17 18 19 19 17 16
18 19 15 12 11 12 10 8 10 14 14 13 11 11 12 14 16 16 15 14 14 14 16 15 16 18 15 13 13 14 14 14 13 13 13 13 13 13 14 14 14 14 12 11
8 10 10 11 10 9 8 9 10 11 11 11 11 12 14 15 15 14 12 11 9 16 16 15 15 14 12 11 12 12 12 12 11 11 11 10 10 10 10 9 9 8 8 9
8 9 7 7 7 7 8 6 5 8 9 8 9 11 11 13 14 14 14 13 12 13 13 13 13 10 9 8 8 8 8 7 7 7 7 7 7 7 7 6 7 7 7 6
9 9 9 8 8 8 7 6 7 9 10 9 7 7 9 9 11 11 11 10 9 8 8 9 8 7 7 7 6 5 4 5 5 5 6 5 6 5 6 5 5 5 5 5
7 9 8 8 8 10 11 12 12 12 11 9 9 11 10 9 8 7 7 5 5 5 7 7 6 5 5 4 4 3 3 3 3 4 4 4 4 4 4 4 5 5 5 6
9 10 11 12 12 12 14 13 13 13 12 9 9 9 9 9 7 5 4 4 5 6 4 4 4 4 4 3 2 2 2 2 2 3 2 2 3 4 4 4 4 4 4 5
13 13 14 14 14 13 12 11 10 12 12 9 6 7 7 7 6 7 5 5 6 5 4 3 4 5 5 4 3 3 3 3 3 4 3 3 3 3 2 2 3 3 5 6
11 12 13 12 13 14 11 9 8 7 5 4 4 6 6 5 6 6 4 4 5 3 2 3 4 4 4 4 4 4 3 2 2 2 1 1 1 1 2 3 4 5 6 8
13 13 12 11 9 9 7 6 5 5 4 4 4 4 6 7 7 5 3 4 4 3 2 3 4 3 4 4 3 3 3 4 3 3 3 3 4 4 4 6 7 8 9 9
12 11 11 11 11 9 7 7 6 6 8 8 7 8 8 8 8 5 3 3 3 4 2 3 5 5 4 3 2 3 3 3 4 5 6 6 6 7 7 7 8 9 9 9
7 4 3 2 3 3 3 3 2 3 5 7 7 9 9 7 3 3 4 4 4 5 5 6 6 5 5 5 6 6 5 5 5 6 6 7 8 9 9 9 9 8 8 9
2 1 3 3 2 2 2 5 7 8 7 6 6 9 9 8 5 4 4 5 7 8 7 5 6 7 7 6 7 9 9 9 8 8 8 9 11 11 11 11 11 11 12 13
3 4 6 5 4 6 6 5 6 6 6 9 10 7 8 9 8 7 7 6 5 7 9 9 8 8 10 10 12 13 13 12 11 10 10 10 11 12 12 11 11 12 13 13

GFSNGP_850_spd_081.txt.gz
Wind_Speed
6 10 11 14 15 14 15 14 7 12 12 7 5 3 12 25 18 23 25 32 30 29 25 20 14 11 9 10 13 15 17 18 19 20 22 23 24 26 29 30 32 33 33 36
4 7 7 12 18 15 14 18 16 16 18 6 3 11 7 17 16 22 22 27 25 26 25 23 19 15 12 12 14 13 13 15 17 19 20 22 24 26 29 30 30 30 35 38
4 6 11 8 4 6 9 17 15 16 16 8 2 7 7 6 18 16 18 21 25 25 24 21 18 15 12 9 7 14 16 15 17 17 18 20 23 26 30 32 32 34 34 35
3 5 3 4 6 8 12 7 10 17 15 13 16 19 19 17 17 14 13 19 25 25 24 21 17 16 15 13 11 12 14 14 14 13 14 18 21 22 22 24 30 36 37 38
2 3 8 8 3 6 7 5 11 6 19 19 28 31 17 13 17 16 15 23 25 23 22 20 19 17 15 13 13 13 11 8 6 8 9 10 13 14 21 26 28 31 30 34
1 2 4 3 0 3 8 6 16 22 18 17 16 7 2 10 14 17 20 23 21 20 18 20 20 17 18 20 17 17 15 12 7 3 2 4 5 5 9 14 20 22 28 32
7 4 6 5 8 7 4 5 13 21 21 20 10 11 12 12 14 17 18 18 16 15 18 18 16 14 16 17 20 20 17 16 14 12 9 6 5 4 4 4 4 7 13 21
3 3 8 14 7 3 5 11 14 19 24 31 21 19 17 13 14 16 18 17 16 16 16 15 13 13 14 17 17 14 13 11 12 12 12 10 8 5 5 3 1 1 3 7
4 1 10 18 18 18 11 19 15 16 15 19 20 18 14 14 13 15 16 16 15 15 15 14 14 13 13 14 12 11 10 11 14 14 13 11 9 9 7 6 5 5 4 5
4 6 10 17 20 19 19 19 19 18 17 16 20 15 13 12 13 14 14 14 14 13 15 17 16 14 13 10 9 8 8 9 10 11 12 13 13 14 11 11 10 10 10 11
5 5 7 17 20 17 21 18 17 17 16 16 15 15 12 12 13 13 13 14 14 16 16 17 15 14 12 11 9 8 8 9 10 10 12 13 13 14 14 15 12 12 13 13
3 5 12 7 14 15 20 17 14 13 16 16 15 15 13 14 12 12 13 13 14 15 16 16 15 15 15 13 10 8 8 8 9 11 12 14 15 17 16 14 13 14 14 14
4 20 19 16 18 16 17 15 13 13 14 14 15 13 12 13 13 14 14 15 17 18 17 15 15 17 18 16 13 11 11 10 10 10 11 12 14 15 16 16 15 17 17 16
9 4 17 13 11 12 12 13 11 13 14 13 11 11 12 14 14 15 16 16 15 13 15 15 16 19 18 15 13 14 13 12 11 11 11 11 12 13 13 12 13 15 14 12
17 17 16 12 11 11 8 9 10 14 13 14 12 13 13 15 16 17 15 13 12 12 14 13 14 16 15 14 13 13 13 13 11 11 11 11 11 11 10 10 10 11 10 8
8 8 8 10 10 8 8 9 11 11 11 12 13 13 13 13 13 12 11 10 7 12 13 12 12 13 11 10 10 9 9 9 8 7 8 8 7 7 7 7 7 6 6 8
2 7 7 8 8 9 9 8 7 8 8 9 10 10 10 11 11 11 11 10 9 10 10 10 11 9 8 8 7 6 5 4 4 3 4 4 4 5 6 6 6 6 7 6
6 6 5 5 5 6 7 7 7 7 7 8 8 8 8 8 9 9 7 6 5 5 5 6 6 6 6 5 5 3 3 3 2 3 4 4 4 5 5 5 6 6 6 6
4 3 3 4 5 6 9 11 11 10 10 9 8 8 8 7 7 6 5 3 2 3 5 7 7 6 4 4 4 4 3 3 2 3 4 4 4 5 5 6 7 7 7 7
9 9 10 11 11 12 13 13 11 12 11 7 7 7 6 7 7 6 6 6 6 6 7 7 7 7 6 6 5 5 4 4 5 5 5 5 5 5 6 6 7 7 7 8
14 14 14 13 14 13 12 10 8 9 9 7 5 6 7 7 8 8 7 7 5 5 6 7 7 7 7 6 6 6 6 6 5 5 5 5 5 5 5 6 6 7 8 9
13 14 14 13 12 12 11 8 7 7 6 6 7 8 9 9 9 8 7 6 5 4 5 7 7 7 6 6 6 6 6 5 5 5 5 5 5 5 6 6 7 7 8 8
14 13 12 10 9 8 8 7 7 8 8 8 9 9 10 10 10 9 6 5 5 5 6 7 7 8 7 6 6 6 5 5 5 5 5 5 5 6 7 7 8 9 9 9
13 12 11 10 10 9 8 7 6 6 8 9 9 10 12 11 9 6 5 4 5 5 5 6 6 6 6 6 7 7 7 7 7 7 7 7 8 9 9 9 10 10 10 10
7 5 3 3 3 4 6 6 6 6 7 7 9 11 13 12 10 7 5 5 5 6 7 6 6 6 6 6 6 6 6 6 7 7 7 8 8 9 9 10 10 11 10 10
3 4 2 3 5 6 7 9 11 11 11 8 9 11 11 10 10 8 8 7 7 7 8 9 8 8 8 8 9 10 10 9 9 8 7 7 8 9 10 10 10 11 12 13
3 4 5 6 6 8 9 9 7 8 9 11 13 10 7 8 8 7 8 8 7 8 9 10 11 10 10 10 12 14 13 12 12 11 11 11 11 11 10 10 11 13 14 15

GFSNGP_850_spd_084.txt.gz
Wind_Speed
3 5 2 6 9 11 10 13 9 16 14 16 11 10 5 20 16 17 19 23 23 24 23 19 16 13 11 10 11 11 11 10 10 10 11 13 13 13 15 17 19 20 19 20
3 4 2 4 15 14 12 14 15 19 22 17 13 4 7 18 16 18 19 21 22 22 22 21 18 16 13 12 12 11 11 10 11 11 12 13 14 16 17 18 20 20 20 22
3 4 6 5 5 4 6 8 14 13 17 4 4 3 8 15 17 16 17 20 21 20 18 18 18 15 12 10 13 16 15 14 13 11 11 12 13 15 17 18 19 22 24 25
2 4 2 5 0 4 7 13 9 16 10 10 11 17 25 20 17 14 16 18 20 21 19 18 18 20 15 15 15 16 16 14 12 12 14 15 15 16 15 16 19 20 21 22
1 1 6 9 2 2 2 18 12 11 19 11 25 25 18 17 18 19 16 18 21 22 23 19 19 17 15 15 14 12 10 7 7 8 7 8 10 12 15 19 20 21 22 22
2 1 3 4 3 8 7 5 17 22 10 22 22 5 3 15 16 17 17 20 21 21 22 23 19 23 21 21 19 17 13 9 6 4 4 4 3 3 5 9 14 16 18 22
6 5 5 4 12 16 5 7 14 19 23 21 9 13 16 18 16 17 17 18 18 19 19 18 19 18 23 22 23 21 17 15 13 11 9 8 6 3 0 2 3 5 7 8
3 3 6 19 10 3 4 12 13 20 24 27 28 25 20 19 18 18 18 18 17 17 18 17 15 15 18 20 19 16 16 14 13 13 13 11 9 6 5 3 2 2 1 2
4 1 9 16 14 15 18 16 15 19 18 21 23 21 19 19 19 20 20 18 16 16 16 16 15 14 15 16 13 12 10 10 12 12 12 12 10 9 7 6 5 5 4 4
4 5 10 17 18 20 20 22 20 20 18 17 20 18 18 18 17 17 16 16 15 15 17 17 15 13 14 13 11 9 9 10 12 12 11 12 9 9 8 9 10 10 10 10
3 7 11 18 15 15 19 19 21 20 19 19 17 18 15 16 15 15 15 16 16 17 18 19 17 16 14 13 11 10 11 11 11 13 15 16 17 18 17 17 14 13 14 13
3 8 11 10 12 14 20 20 18 17 18 17 15 15 13 16 15 15 15 16 17 19 19 19 19 18 16 14 12 10 9 9 10 12 13 15 16 17 16 15 13 15 17 17
5 17 18 16 16 17 21 19 17 16 15 15 14 12 13 15 16 16 17 18 19 20 19 18 18 19 19 18 15 12 12 12 11 11 12 12 13 12 12 12 12 14 14 14
12 6 14 16 11 15 17 16 15 16 15 14 13 12 13 15 15 16 18 18 16 16 17 17 17 19 18 16 14 14 13 13 11 11 11 10 10 11 10 8 8 9 10 8
15 15 14 11 12 15 13 12 14 16 15 15 14 15 15 15 16 16 15 14 13 13 15 15 15 16 15 15 13 12 12 12 10 9 9 8 7 7 5 5 5 6 6 5
7 10 9 11 12 11 10 12 15 15 14 14 15 15 15 15 15 14 13 11 9 14 14 13 13 14 13 12 11 10 9 9 6 5 6 5 4 3 4 4 5 5 4 6
2 8 7 10 11 11 13 12 12 11 11 12 13 13 12 12 12 12 12 12 12 11 11 10 11 10 9 8 8 8 7 5 4 3 3 4 4 3 4 4 5 5 6 6
8 7 6 6 7 9 11 12 12 11 12 13 11 10 10 9 11 11 10 10 9 9 9 11 10 9 8 7 6 6 5 5 5 5 5 4 4 5 5 6 6 7 8 7
6 6 7 10 11 12 15 15 14 14 14 12 9 10 10 10 10 11 10 9 7 7 9 9 9 8 7 6 6 6 6 5 5 4 4 4 5 5 5 5 6 6 6 5
10 12 13 15 15 15 16 15 12 12 12 10 11 10 9 10 10 10 9 10 9 9 9 9 9 8 8 7 6 6 5 5 4 4 3 3 4 4 4 5 5 5 5 5
14 15 14 13 14 14 14 13 10 9 10 11 10 10 10 11 11 11 10 8 7 6 7 8 8 7 6 6 6 5 5 4 4 3 3 3 2 3 3 4 4 5 6 7
15 14 14 12 11 10 10 8 6 8 8 8 9 11 11 11 11 10 9 7 6 6 6 7 7 7 6 5 5 5 4 3 3 3 4 3 4 4 5 5 6 7 7 8
15 13 12 10 8 7 7 6 6 7 7 8 9 11 12 13 12 9 7 6 7 7 7 8 7 7 6 5 5 5 5 5 5 5 5 5 5 5 6 7 8 9 9 9
13 12 10 9 8 7 6 5 4 5 6 7 8 10 12 13 12 8 8 6 7 7 7 8 8 8 7 7 7 7 8 8 7 7 7 7 8 8 9 9 10 10 10 10
8 5 4 3 4 5 6 6 6 7 8 8 9 11 13 12 10 8 7 6 6 7 8 7 8 8 8 7 7 7 8 7 7 8 8 9 10 10 10 11 11 12 11 11
5 4 3 3 3 4 6 9 10 9 12 12 10 11 12 9 9 7 7 7 6 6 8 9 9 8 8 8 8 10 10 10 8 8 9 10 10 11 12 12 11 12 12 13
1 2 2 4 6 8 9 9 8 8 9 8 11 11 7 7 6 6 8 9 8 9 11 11 11 11 11 11 11 12 13 12 10 10 12 12 11 10 10 11 12 13 14 15